<?xml version="1.0" encoding="UTF-8" standalone="no" ?>
<gpx xmlns="http://www.topografix.com/GPX/1/1" xmlns:xsi="http://www.w3.org/2001/XMLSchema-instance" xsi:schemaLocation="http://www.topografix.com/GPX/1/1 http://www.topografix.com/GPX/1/1/gpx.xsd" version="1.1" creator="VisuGPX - https://www.visugpx.com">
  <metadata>
    <name>Trail de Serrabone</name>
  </metadata>
  <trk>
    <name><![CDATA[Trail de Serrabone]]></name>
    <trkseg>
      <trkpt lat="42.60746" lon="2.60666">
        <ele>338.58</ele>
        <time>2021-10-29T16:36:18Z</time>
      </trkpt>
      <trkpt lat="42.60737" lon="2.60669">
        <ele>340.29</ele>
        <time>2021-10-29T16:36:18Z</time>
      </trkpt>
      <trkpt lat="42.60724" lon="2.60665">
        <ele>342.48</ele>
        <time>2021-10-29T16:36:18Z</time>
      </trkpt>
      <trkpt lat="42.60716" lon="2.60662">
        <ele>343.74</ele>
        <time>2021-10-29T16:36:18Z</time>
      </trkpt>
      <trkpt lat="42.60708" lon="2.60655">
        <ele>344.66</ele>
        <time>2021-10-29T16:36:18Z</time>
      </trkpt>
      <trkpt lat="42.60696" lon="2.60642">
        <ele>347.65</ele>
        <time>2021-10-29T16:36:18Z</time>
      </trkpt>
      <trkpt lat="42.60695" lon="2.60625">
        <ele>348.68</ele>
        <time>2021-10-29T16:36:18Z</time>
      </trkpt>
      <trkpt lat="42.60689" lon="2.60608">
        <ele>350.36</ele>
        <time>2021-10-29T16:36:18Z</time>
      </trkpt>
      <trkpt lat="42.60685" lon="2.60595">
        <ele>351.17</ele>
        <time>2021-10-29T16:36:18Z</time>
      </trkpt>
      <trkpt lat="42.60678" lon="2.6058">
        <ele>351.97</ele>
        <time>2021-10-29T16:36:18Z</time>
      </trkpt>
      <trkpt lat="42.60668" lon="2.60582">
        <ele>352.63</ele>
        <time>2021-10-29T16:36:18Z</time>
      </trkpt>
      <trkpt lat="42.60653" lon="2.60565">
        <ele>353.85</ele>
        <time>2021-10-29T16:36:18Z</time>
      </trkpt>
      <trkpt lat="42.60649" lon="2.60554">
        <ele>354.09</ele>
        <time>2021-10-29T16:36:18Z</time>
      </trkpt>
      <trkpt lat="42.60644" lon="2.60542">
        <ele>354.23</ele>
        <time>2021-10-29T16:36:18Z</time>
      </trkpt>
      <trkpt lat="42.60637" lon="2.60533">
        <ele>354.27</ele>
        <time>2021-10-29T16:36:18Z</time>
      </trkpt>
      <trkpt lat="42.60629" lon="2.60525">
        <ele>354.89</ele>
        <time>2021-10-29T16:36:18Z</time>
      </trkpt>
      <trkpt lat="42.60619" lon="2.6052">
        <ele>355.76</ele>
        <time>2021-10-29T16:36:18Z</time>
      </trkpt>
      <trkpt lat="42.60596" lon="2.60527">
        <ele>358.78</ele>
        <time>2021-10-29T16:36:18Z</time>
      </trkpt>
      <trkpt lat="42.60581" lon="2.60529">
        <ele>360.79</ele>
        <time>2021-10-29T16:36:18Z</time>
      </trkpt>
      <trkpt lat="42.60572" lon="2.60521">
        <ele>360.68</ele>
        <time>2021-10-29T16:36:18Z</time>
      </trkpt>
      <trkpt lat="42.60567" lon="2.6051">
        <ele>360.31</ele>
        <time>2021-10-29T16:36:18Z</time>
      </trkpt>
      <trkpt lat="42.60563" lon="2.60499">
        <ele>362.33</ele>
        <time>2021-10-29T16:36:18Z</time>
      </trkpt>
      <trkpt lat="42.60556" lon="2.60489">
        <ele>364.67</ele>
        <time>2021-10-29T16:36:18Z</time>
      </trkpt>
      <trkpt lat="42.6054" lon="2.60467">
        <ele>368.44</ele>
        <time>2021-10-29T16:36:18Z</time>
      </trkpt>
      <trkpt lat="42.60532" lon="2.60459">
        <ele>369.54</ele>
        <time>2021-10-29T16:36:18Z</time>
      </trkpt>
      <trkpt lat="42.60525" lon="2.60448">
        <ele>370.11</ele>
        <time>2021-10-29T16:36:18Z</time>
      </trkpt>
      <trkpt lat="42.6052" lon="2.60437">
        <ele>371.34</ele>
        <time>2021-10-29T16:36:18Z</time>
      </trkpt>
      <trkpt lat="42.60515" lon="2.60426">
        <ele>372.79</ele>
        <time>2021-10-29T16:36:18Z</time>
      </trkpt>
      <trkpt lat="42.60506" lon="2.60411">
        <ele>374.18</ele>
        <time>2021-10-29T16:36:18Z</time>
      </trkpt>
      <trkpt lat="42.60491" lon="2.60405">
        <ele>376.62</ele>
        <time>2021-10-29T16:36:18Z</time>
      </trkpt>
      <trkpt lat="42.60485" lon="2.60394">
        <ele>378.83</ele>
        <time>2021-10-29T16:36:18Z</time>
      </trkpt>
      <trkpt lat="42.60478" lon="2.60382">
        <ele>380.95</ele>
        <time>2021-10-29T16:36:18Z</time>
      </trkpt>
      <trkpt lat="42.60473" lon="2.60372">
        <ele>382.62</ele>
        <time>2021-10-29T16:36:18Z</time>
      </trkpt>
      <trkpt lat="42.60466" lon="2.60362">
        <ele>385.06</ele>
        <time>2021-10-29T16:36:18Z</time>
      </trkpt>
      <trkpt lat="42.60458" lon="2.60348">
        <ele>387.41</ele>
        <time>2021-10-29T16:36:18Z</time>
      </trkpt>
      <trkpt lat="42.60451" lon="2.60339">
        <ele>388.74</ele>
        <time>2021-10-29T16:36:18Z</time>
      </trkpt>
      <trkpt lat="42.60442" lon="2.60329">
        <ele>389.84</ele>
        <time>2021-10-29T16:36:18Z</time>
      </trkpt>
      <trkpt lat="42.60435" lon="2.60318">
        <ele>390.18</ele>
        <time>2021-10-29T16:36:18Z</time>
      </trkpt>
      <trkpt lat="42.60429" lon="2.60309">
        <ele>390.19</ele>
        <time>2021-10-29T16:36:18Z</time>
      </trkpt>
      <trkpt lat="42.60426" lon="2.60297">
        <ele>392.57</ele>
        <time>2021-10-29T16:36:18Z</time>
      </trkpt>
      <trkpt lat="42.60416" lon="2.60286">
        <ele>396.54</ele>
        <time>2021-10-29T16:36:18Z</time>
      </trkpt>
      <trkpt lat="42.60405" lon="2.60287">
        <ele>399.03</ele>
        <time>2021-10-29T16:36:18Z</time>
      </trkpt>
      <trkpt lat="42.60396" lon="2.60284">
        <ele>401.3</ele>
        <time>2021-10-29T16:36:18Z</time>
      </trkpt>
      <trkpt lat="42.60388" lon="2.60274">
        <ele>403.31</ele>
        <time>2021-10-29T16:36:18Z</time>
      </trkpt>
      <trkpt lat="42.60378" lon="2.60266">
        <ele>405.13</ele>
        <time>2021-10-29T16:36:18Z</time>
      </trkpt>
      <trkpt lat="42.60368" lon="2.60252">
        <ele>406.11</ele>
        <time>2021-10-29T16:36:18Z</time>
      </trkpt>
      <trkpt lat="42.60364" lon="2.60237">
        <ele>405.97</ele>
        <time>2021-10-29T16:36:18Z</time>
      </trkpt>
      <trkpt lat="42.60355" lon="2.60226">
        <ele>409.34</ele>
        <time>2021-10-29T16:36:18Z</time>
      </trkpt>
      <trkpt lat="42.60346" lon="2.60223">
        <ele>412.5</ele>
        <time>2021-10-29T16:36:18Z</time>
      </trkpt>
      <trkpt lat="42.60334" lon="2.60218">
        <ele>416.5</ele>
        <time>2021-10-29T16:36:18Z</time>
      </trkpt>
      <trkpt lat="42.60332" lon="2.60205">
        <ele>417.51</ele>
        <time>2021-10-29T16:36:18Z</time>
      </trkpt>
      <trkpt lat="42.60327" lon="2.6019">
        <ele>419.07</ele>
        <time>2021-10-29T16:36:18Z</time>
      </trkpt>
      <trkpt lat="42.60317" lon="2.60172">
        <ele>421.03</ele>
        <time>2021-10-29T16:36:18Z</time>
      </trkpt>
      <trkpt lat="42.60304" lon="2.60161">
        <ele>424.06</ele>
        <time>2021-10-29T16:36:18Z</time>
      </trkpt>
      <trkpt lat="42.60297" lon="2.60152">
        <ele>425.78</ele>
        <time>2021-10-29T16:36:18Z</time>
      </trkpt>
      <trkpt lat="42.60301" lon="2.60136">
        <ele>426.94</ele>
        <time>2021-10-29T16:36:18Z</time>
      </trkpt>
      <trkpt lat="42.60308" lon="2.60128">
        <ele>427.49</ele>
        <time>2021-10-29T16:36:18Z</time>
      </trkpt>
      <trkpt lat="42.60311" lon="2.60112">
        <ele>429.45</ele>
        <time>2021-10-29T16:36:18Z</time>
      </trkpt>
      <trkpt lat="42.60303" lon="2.60089">
        <ele>432.92</ele>
        <time>2021-10-29T16:36:18Z</time>
      </trkpt>
      <trkpt lat="42.60296" lon="2.60081">
        <ele>433.89</ele>
        <time>2021-10-29T16:36:18Z</time>
      </trkpt>
      <trkpt lat="42.60286" lon="2.60069">
        <ele>436.56</ele>
        <time>2021-10-29T16:36:18Z</time>
      </trkpt>
      <trkpt lat="42.60277" lon="2.60064">
        <ele>438.6</ele>
        <time>2021-10-29T16:36:18Z</time>
      </trkpt>
      <trkpt lat="42.60265" lon="2.60059">
        <ele>440.79</ele>
        <time>2021-10-29T16:36:18Z</time>
      </trkpt>
      <trkpt lat="42.60255" lon="2.60057">
        <ele>442.2</ele>
        <time>2021-10-29T16:36:18Z</time>
      </trkpt>
      <trkpt lat="42.60239" lon="2.60048">
        <ele>444.48</ele>
        <time>2021-10-29T16:36:18Z</time>
      </trkpt>
      <trkpt lat="42.60234" lon="2.60036">
        <ele>445.29</ele>
        <time>2021-10-29T16:36:18Z</time>
      </trkpt>
      <trkpt lat="42.60231" lon="2.60021">
        <ele>447.29</ele>
        <time>2021-10-29T16:36:18Z</time>
      </trkpt>
      <trkpt lat="42.60223" lon="2.60018">
        <ele>448.04</ele>
        <time>2021-10-29T16:36:18Z</time>
      </trkpt>
      <trkpt lat="42.60209" lon="2.60011">
        <ele>453</ele>
        <time>2021-10-29T16:36:18Z</time>
      </trkpt>
      <trkpt lat="42.60198" lon="2.60005">
        <ele>456.64</ele>
        <time>2021-10-29T16:36:18Z</time>
      </trkpt>
      <trkpt lat="42.6019" lon="2.59997">
        <ele>459.33</ele>
        <time>2021-10-29T16:36:18Z</time>
      </trkpt>
      <trkpt lat="42.60183" lon="2.59988">
        <ele>461.56</ele>
        <time>2021-10-29T16:36:18Z</time>
      </trkpt>
      <trkpt lat="42.60183" lon="2.59969">
        <ele>462.42</ele>
        <time>2021-10-29T16:36:18Z</time>
      </trkpt>
      <trkpt lat="42.60182" lon="2.59953">
        <ele>464.46</ele>
        <time>2021-10-29T16:36:18Z</time>
      </trkpt>
      <trkpt lat="42.60179" lon="2.59936">
        <ele>467.32</ele>
        <time>2021-10-29T16:36:18Z</time>
      </trkpt>
      <trkpt lat="42.60172" lon="2.59927">
        <ele>469.18</ele>
        <time>2021-10-29T16:36:18Z</time>
      </trkpt>
      <trkpt lat="42.60163" lon="2.59919">
        <ele>470.74</ele>
        <time>2021-10-29T16:36:18Z</time>
      </trkpt>
      <trkpt lat="42.60157" lon="2.59906">
        <ele>472.16</ele>
        <time>2021-10-29T16:36:18Z</time>
      </trkpt>
      <trkpt lat="42.60152" lon="2.59902">
        <ele>473.29</ele>
        <time>2021-10-29T16:36:18Z</time>
      </trkpt>
      <trkpt lat="42.60156" lon="2.59897">
        <ele>472.87</ele>
        <time>2021-10-29T16:36:18Z</time>
      </trkpt>
      <trkpt lat="42.60153" lon="2.59891">
        <ele>473.91</ele>
        <time>2021-10-29T16:36:18Z</time>
      </trkpt>
      <trkpt lat="42.60147" lon="2.59882">
        <ele>476.39</ele>
        <time>2021-10-29T16:36:18Z</time>
      </trkpt>
      <trkpt lat="42.60138" lon="2.59877">
        <ele>479.17</ele>
        <time>2021-10-29T16:36:18Z</time>
      </trkpt>
      <trkpt lat="42.60126" lon="2.59871">
        <ele>482.69</ele>
        <time>2021-10-29T16:36:18Z</time>
      </trkpt>
      <trkpt lat="42.60116" lon="2.59879">
        <ele>484.71</ele>
        <time>2021-10-29T16:36:18Z</time>
      </trkpt>
      <trkpt lat="42.60108" lon="2.59885">
        <ele>486.47</ele>
        <time>2021-10-29T16:36:18Z</time>
      </trkpt>
      <trkpt lat="42.60096" lon="2.59877">
        <ele>489.98</ele>
        <time>2021-10-29T16:36:18Z</time>
      </trkpt>
      <trkpt lat="42.60085" lon="2.59864">
        <ele>493.28</ele>
        <time>2021-10-29T16:36:18Z</time>
      </trkpt>
      <trkpt lat="42.60076" lon="2.59861">
        <ele>496.52</ele>
        <time>2021-10-29T16:36:18Z</time>
      </trkpt>
      <trkpt lat="42.60066" lon="2.59866">
        <ele>499.82</ele>
        <time>2021-10-29T16:36:18Z</time>
      </trkpt>
      <trkpt lat="42.60053" lon="2.59856">
        <ele>504.77</ele>
        <time>2021-10-29T16:36:18Z</time>
      </trkpt>
      <trkpt lat="42.60055" lon="2.59844">
        <ele>504.57</ele>
        <time>2021-10-29T16:36:18Z</time>
      </trkpt>
      <trkpt lat="42.60057" lon="2.5983">
        <ele>504.44</ele>
        <time>2021-10-29T16:36:18Z</time>
      </trkpt>
      <trkpt lat="42.60052" lon="2.59819">
        <ele>507.51</ele>
        <time>2021-10-29T16:36:18Z</time>
      </trkpt>
      <trkpt lat="42.60056" lon="2.59802">
        <ele>508.31</ele>
        <time>2021-10-29T16:36:18Z</time>
      </trkpt>
      <trkpt lat="42.60062" lon="2.59795">
        <ele>506.68</ele>
        <time>2021-10-29T16:36:18Z</time>
      </trkpt>
      <trkpt lat="42.6007" lon="2.59789">
        <ele>503.87</ele>
        <time>2021-10-29T16:36:18Z</time>
      </trkpt>
      <trkpt lat="42.60078" lon="2.59783">
        <ele>500.86</ele>
        <time>2021-10-29T16:36:18Z</time>
      </trkpt>
      <trkpt lat="42.60081" lon="2.59768">
        <ele>500.74</ele>
        <time>2021-10-29T16:36:18Z</time>
      </trkpt>
      <trkpt lat="42.60078" lon="2.59757">
        <ele>503.29</ele>
        <time>2021-10-29T16:36:18Z</time>
      </trkpt>
      <trkpt lat="42.60072" lon="2.59744">
        <ele>508.73</ele>
        <time>2021-10-29T16:36:18Z</time>
      </trkpt>
      <trkpt lat="42.60064" lon="2.59713">
        <ele>518.34</ele>
        <time>2021-10-29T16:36:18Z</time>
      </trkpt>
      <trkpt lat="42.60064" lon="2.59699">
        <ele>520.86</ele>
        <time>2021-10-29T16:36:18Z</time>
      </trkpt>
      <trkpt lat="42.60062" lon="2.59685">
        <ele>524.64</ele>
        <time>2021-10-29T16:36:18Z</time>
      </trkpt>
      <trkpt lat="42.60062" lon="2.59668">
        <ele>528.89</ele>
        <time>2021-10-29T16:36:18Z</time>
      </trkpt>
      <trkpt lat="42.60066" lon="2.59656">
        <ele>530.27</ele>
        <time>2021-10-29T16:36:18Z</time>
      </trkpt>
      <trkpt lat="42.60064" lon="2.5964">
        <ele>535.15</ele>
        <time>2021-10-29T16:36:18Z</time>
      </trkpt>
      <trkpt lat="42.60071" lon="2.59632">
        <ele>534.76</ele>
        <time>2021-10-29T16:36:18Z</time>
      </trkpt>
      <trkpt lat="42.60073" lon="2.59642">
        <ele>531.31</ele>
        <time>2021-10-29T16:36:18Z</time>
      </trkpt>
      <trkpt lat="42.60081" lon="2.59647">
        <ele>526.88</ele>
        <time>2021-10-29T16:36:18Z</time>
      </trkpt>
      <trkpt lat="42.60094" lon="2.59655">
        <ele>525.1</ele>
        <time>2021-10-29T16:36:18Z</time>
      </trkpt>
      <trkpt lat="42.60099" lon="2.59666">
        <ele>523.16</ele>
        <time>2021-10-29T16:36:18Z</time>
      </trkpt>
      <trkpt lat="42.60113" lon="2.59686">
        <ele>520.61</ele>
        <time>2021-10-29T16:36:18Z</time>
      </trkpt>
      <trkpt lat="42.60119" lon="2.59701">
        <ele>517.52</ele>
        <time>2021-10-29T16:36:18Z</time>
      </trkpt>
      <trkpt lat="42.60137" lon="2.59708">
        <ele>519.13</ele>
        <time>2021-10-29T16:36:18Z</time>
      </trkpt>
      <trkpt lat="42.6015" lon="2.59717">
        <ele>518.08</ele>
        <time>2021-10-29T16:36:18Z</time>
      </trkpt>
      <trkpt lat="42.60164" lon="2.59721">
        <ele>519.65</ele>
        <time>2021-10-29T16:36:18Z</time>
      </trkpt>
      <trkpt lat="42.60175" lon="2.59735">
        <ele>516.66</ele>
        <time>2021-10-29T16:36:18Z</time>
      </trkpt>
      <trkpt lat="42.60188" lon="2.59736">
        <ele>519.84</ele>
        <time>2021-10-29T16:36:18Z</time>
      </trkpt>
      <trkpt lat="42.60197" lon="2.59727">
        <ele>526.02</ele>
        <time>2021-10-29T16:36:18Z</time>
      </trkpt>
      <trkpt lat="42.60207" lon="2.59724">
        <ele>529.95</ele>
        <time>2021-10-29T16:36:18Z</time>
      </trkpt>
      <trkpt lat="42.60217" lon="2.59717">
        <ele>535.43</ele>
        <time>2021-10-29T16:36:18Z</time>
      </trkpt>
      <trkpt lat="42.60224" lon="2.59723">
        <ele>534.89</ele>
        <time>2021-10-29T16:36:18Z</time>
      </trkpt>
      <trkpt lat="42.60226" lon="2.59738">
        <ele>529.43</ele>
        <time>2021-10-29T16:36:18Z</time>
      </trkpt>
      <trkpt lat="42.6023" lon="2.59755">
        <ele>523.7</ele>
        <time>2021-10-29T16:36:18Z</time>
      </trkpt>
      <trkpt lat="42.60241" lon="2.59765">
        <ele>522.5</ele>
        <time>2021-10-29T16:36:18Z</time>
      </trkpt>
      <trkpt lat="42.60267" lon="2.59763">
        <ele>529.36</ele>
        <time>2021-10-29T16:36:18Z</time>
      </trkpt>
      <trkpt lat="42.60277" lon="2.59762">
        <ele>532.07</ele>
        <time>2021-10-29T16:36:18Z</time>
      </trkpt>
      <trkpt lat="42.60286" lon="2.59765">
        <ele>533.12</ele>
        <time>2021-10-29T16:36:18Z</time>
      </trkpt>
      <trkpt lat="42.60296" lon="2.5978">
        <ele>529.92</ele>
        <time>2021-10-29T16:36:18Z</time>
      </trkpt>
      <trkpt lat="42.60305" lon="2.59786">
        <ele>529.29</ele>
        <time>2021-10-29T16:36:18Z</time>
      </trkpt>
      <trkpt lat="42.60316" lon="2.59801">
        <ele>526.2</ele>
        <time>2021-10-29T16:36:18Z</time>
      </trkpt>
      <trkpt lat="42.60323" lon="2.59814">
        <ele>523.32</ele>
        <time>2021-10-29T16:36:18Z</time>
      </trkpt>
      <trkpt lat="42.60327" lon="2.59825">
        <ele>520.64</ele>
        <time>2021-10-29T16:36:18Z</time>
      </trkpt>
      <trkpt lat="42.60335" lon="2.59825">
        <ele>522.26</ele>
        <time>2021-10-29T16:36:18Z</time>
      </trkpt>
      <trkpt lat="42.60343" lon="2.59817">
        <ele>526.24</ele>
        <time>2021-10-29T16:36:18Z</time>
      </trkpt>
      <trkpt lat="42.60353" lon="2.59811">
        <ele>529.89</ele>
        <time>2021-10-29T16:36:18Z</time>
      </trkpt>
      <trkpt lat="42.60359" lon="2.59794">
        <ele>535.75</ele>
        <time>2021-10-29T16:36:18Z</time>
      </trkpt>
      <trkpt lat="42.60369" lon="2.59784">
        <ele>539.45</ele>
        <time>2021-10-29T16:36:18Z</time>
      </trkpt>
      <trkpt lat="42.60371" lon="2.59772">
        <ele>542.9</ele>
        <time>2021-10-29T16:36:18Z</time>
      </trkpt>
      <trkpt lat="42.60366" lon="2.59784">
        <ele>539.22</ele>
        <time>2021-10-29T16:36:18Z</time>
      </trkpt>
      <trkpt lat="42.60357" lon="2.59794">
        <ele>535.41</ele>
        <time>2021-10-29T16:36:18Z</time>
      </trkpt>
      <trkpt lat="42.60351" lon="2.59783">
        <ele>537.55</ele>
        <time>2021-10-29T16:36:18Z</time>
      </trkpt>
      <trkpt lat="42.60345" lon="2.59774">
        <ele>539.24</ele>
        <time>2021-10-29T16:36:18Z</time>
      </trkpt>
      <trkpt lat="42.60341" lon="2.59773">
        <ele>538.95</ele>
        <time>2021-10-29T16:36:18Z</time>
      </trkpt>
      <trkpt lat="42.60326" lon="2.59764">
        <ele>539.57</ele>
        <time>2021-10-29T16:36:18Z</time>
      </trkpt>
      <trkpt lat="42.60317" lon="2.5975">
        <ele>542.78</ele>
        <time>2021-10-29T16:36:18Z</time>
      </trkpt>
      <trkpt lat="42.60311" lon="2.59737">
        <ele>546.18</ele>
        <time>2021-10-29T16:36:18Z</time>
      </trkpt>
      <trkpt lat="42.60304" lon="2.59724">
        <ele>549.61</ele>
        <time>2021-10-29T16:36:18Z</time>
      </trkpt>
      <trkpt lat="42.60297" lon="2.59715">
        <ele>551.87</ele>
        <time>2021-10-29T16:36:18Z</time>
      </trkpt>
      <trkpt lat="42.60295" lon="2.59703">
        <ele>555.67</ele>
        <time>2021-10-29T16:36:18Z</time>
      </trkpt>
      <trkpt lat="42.60289" lon="2.59695">
        <ele>557.55</ele>
        <time>2021-10-29T16:36:18Z</time>
      </trkpt>
      <trkpt lat="42.60283" lon="2.59682">
        <ele>560.41</ele>
        <time>2021-10-29T16:36:18Z</time>
      </trkpt>
      <trkpt lat="42.60278" lon="2.59667">
        <ele>563.73</ele>
        <time>2021-10-29T16:36:18Z</time>
      </trkpt>
      <trkpt lat="42.6027" lon="2.59647">
        <ele>568.23</ele>
        <time>2021-10-29T16:36:18Z</time>
      </trkpt>
      <trkpt lat="42.60262" lon="2.59636">
        <ele>570.43</ele>
        <time>2021-10-29T16:36:18Z</time>
      </trkpt>
      <trkpt lat="42.60254" lon="2.59626">
        <ele>572.51</ele>
        <time>2021-10-29T16:36:18Z</time>
      </trkpt>
      <trkpt lat="42.60254" lon="2.59611">
        <ele>576.89</ele>
        <time>2021-10-29T16:36:18Z</time>
      </trkpt>
      <trkpt lat="42.60252" lon="2.59598">
        <ele>580.44</ele>
        <time>2021-10-29T16:36:18Z</time>
      </trkpt>
      <trkpt lat="42.60246" lon="2.59588">
        <ele>582.83</ele>
        <time>2021-10-29T16:36:18Z</time>
      </trkpt>
      <trkpt lat="42.60235" lon="2.59583">
        <ele>583.43</ele>
        <time>2021-10-29T16:36:18Z</time>
      </trkpt>
      <trkpt lat="42.60218" lon="2.59584">
        <ele>581.36</ele>
        <time>2021-10-29T16:36:18Z</time>
      </trkpt>
      <trkpt lat="42.602" lon="2.59586">
        <ele>577.86</ele>
        <time>2021-10-29T16:36:18Z</time>
      </trkpt>
      <trkpt lat="42.60178" lon="2.59589">
        <ele>573.36</ele>
        <time>2021-10-29T16:36:18Z</time>
      </trkpt>
      <trkpt lat="42.60167" lon="2.59588">
        <ele>571.92</ele>
        <time>2021-10-29T16:36:18Z</time>
      </trkpt>
      <trkpt lat="42.60157" lon="2.59583">
        <ele>571.98</ele>
        <time>2021-10-29T16:36:18Z</time>
      </trkpt>
      <trkpt lat="42.60149" lon="2.59575">
        <ele>572.02</ele>
        <time>2021-10-29T16:36:18Z</time>
      </trkpt>
      <trkpt lat="42.60144" lon="2.59561">
        <ele>574.65</ele>
        <time>2021-10-29T16:36:18Z</time>
      </trkpt>
      <trkpt lat="42.60136" lon="2.59549">
        <ele>575.03</ele>
        <time>2021-10-29T16:36:18Z</time>
      </trkpt>
      <trkpt lat="42.60134" lon="2.59536">
        <ele>577.12</ele>
        <time>2021-10-29T16:36:18Z</time>
      </trkpt>
      <trkpt lat="42.60134" lon="2.59522">
        <ele>580.24</ele>
        <time>2021-10-29T16:36:18Z</time>
      </trkpt>
      <trkpt lat="42.60137" lon="2.59506">
        <ele>584.99</ele>
        <time>2021-10-29T16:36:18Z</time>
      </trkpt>
      <trkpt lat="42.6014" lon="2.59487">
        <ele>590.4</ele>
        <time>2021-10-29T16:36:18Z</time>
      </trkpt>
      <trkpt lat="42.60141" lon="2.59474">
        <ele>592.5</ele>
        <time>2021-10-29T16:36:18Z</time>
      </trkpt>
      <trkpt lat="42.60144" lon="2.59462">
        <ele>594.79</ele>
        <time>2021-10-29T16:36:18Z</time>
      </trkpt>
      <trkpt lat="42.60151" lon="2.59452">
        <ele>598.35</ele>
        <time>2021-10-29T16:36:18Z</time>
      </trkpt>
      <trkpt lat="42.60148" lon="2.59442">
        <ele>598.14</ele>
        <time>2021-10-29T16:36:18Z</time>
      </trkpt>
      <trkpt lat="42.60152" lon="2.59454">
        <ele>598.54</ele>
        <time>2021-10-29T16:36:18Z</time>
      </trkpt>
      <trkpt lat="42.60151" lon="2.59461">
        <ele>597.54</ele>
        <time>2021-10-29T16:36:18Z</time>
      </trkpt>
      <trkpt lat="42.60156" lon="2.59472">
        <ele>598.21</ele>
        <time>2021-10-29T16:36:18Z</time>
      </trkpt>
      <trkpt lat="42.60158" lon="2.59485">
        <ele>597.16</ele>
        <time>2021-10-29T16:36:18Z</time>
      </trkpt>
      <trkpt lat="42.60168" lon="2.59492">
        <ele>597.21</ele>
        <time>2021-10-29T16:36:18Z</time>
      </trkpt>
      <trkpt lat="42.60179" lon="2.59489">
        <ele>599.62</ele>
        <time>2021-10-29T16:36:18Z</time>
      </trkpt>
      <trkpt lat="42.60187" lon="2.59486">
        <ele>601.57</ele>
        <time>2021-10-29T16:36:18Z</time>
      </trkpt>
      <trkpt lat="42.60199" lon="2.59495">
        <ele>601.44</ele>
        <time>2021-10-29T16:36:18Z</time>
      </trkpt>
      <trkpt lat="42.60207" lon="2.595">
        <ele>601.55</ele>
        <time>2021-10-29T16:36:18Z</time>
      </trkpt>
      <trkpt lat="42.60215" lon="2.59506">
        <ele>601.42</ele>
        <time>2021-10-29T16:36:18Z</time>
      </trkpt>
      <trkpt lat="42.60226" lon="2.59514">
        <ele>601.07</ele>
        <time>2021-10-29T16:36:18Z</time>
      </trkpt>
      <trkpt lat="42.60236" lon="2.59515">
        <ele>601.65</ele>
        <time>2021-10-29T16:36:18Z</time>
      </trkpt>
      <trkpt lat="42.60254" lon="2.59524">
        <ele>600.85</ele>
        <time>2021-10-29T16:36:18Z</time>
      </trkpt>
      <trkpt lat="42.60268" lon="2.59535">
        <ele>599.04</ele>
        <time>2021-10-29T16:36:18Z</time>
      </trkpt>
      <trkpt lat="42.60289" lon="2.59545">
        <ele>597.75</ele>
        <time>2021-10-29T16:36:18Z</time>
      </trkpt>
      <trkpt lat="42.60301" lon="2.59546">
        <ele>598.19</ele>
        <time>2021-10-29T16:36:18Z</time>
      </trkpt>
      <trkpt lat="42.60309" lon="2.59544">
        <ele>599.23</ele>
        <time>2021-10-29T16:36:18Z</time>
      </trkpt>
      <trkpt lat="42.60316" lon="2.59542">
        <ele>600.21</ele>
        <time>2021-10-29T16:36:18Z</time>
      </trkpt>
      <trkpt lat="42.60338" lon="2.5954">
        <ele>602.11</ele>
        <time>2021-10-29T16:36:18Z</time>
      </trkpt>
      <trkpt lat="42.60352" lon="2.5954">
        <ele>602.97</ele>
        <time>2021-10-29T16:36:18Z</time>
      </trkpt>
      <trkpt lat="42.60361" lon="2.59547">
        <ele>601.48</ele>
        <time>2021-10-29T16:36:18Z</time>
      </trkpt>
      <trkpt lat="42.60367" lon="2.59558">
        <ele>598.87</ele>
        <time>2021-10-29T16:36:18Z</time>
      </trkpt>
      <trkpt lat="42.60374" lon="2.59574">
        <ele>595.08</ele>
        <time>2021-10-29T16:36:18Z</time>
      </trkpt>
      <trkpt lat="42.60379" lon="2.59589">
        <ele>591.35</ele>
        <time>2021-10-29T16:36:18Z</time>
      </trkpt>
      <trkpt lat="42.6039" lon="2.59606">
        <ele>587.31</ele>
        <time>2021-10-29T16:36:18Z</time>
      </trkpt>
      <trkpt lat="42.60399" lon="2.59616">
        <ele>584.97</ele>
        <time>2021-10-29T16:36:18Z</time>
      </trkpt>
      <trkpt lat="42.6041" lon="2.59622">
        <ele>583.81</ele>
        <time>2021-10-29T16:36:18Z</time>
      </trkpt>
      <trkpt lat="42.60445" lon="2.59639">
        <ele>581.62</ele>
        <time>2021-10-29T16:36:18Z</time>
      </trkpt>
      <trkpt lat="42.60459" lon="2.59647">
        <ele>580.85</ele>
        <time>2021-10-29T16:36:18Z</time>
      </trkpt>
      <trkpt lat="42.60468" lon="2.59654">
        <ele>579.91</ele>
        <time>2021-10-29T16:36:18Z</time>
      </trkpt>
      <trkpt lat="42.60488" lon="2.59674">
        <ele>576.8</ele>
        <time>2021-10-29T16:36:18Z</time>
      </trkpt>
      <trkpt lat="42.60501" lon="2.59685">
        <ele>575.32</ele>
        <time>2021-10-29T16:36:18Z</time>
      </trkpt>
      <trkpt lat="42.60525" lon="2.59708">
        <ele>571.95</ele>
        <time>2021-10-29T16:36:18Z</time>
      </trkpt>
      <trkpt lat="42.60535" lon="2.59719">
        <ele>570.35</ele>
        <time>2021-10-29T16:36:18Z</time>
      </trkpt>
      <trkpt lat="42.60567" lon="2.59748">
        <ele>567.17</ele>
        <time>2021-10-29T16:36:18Z</time>
      </trkpt>
      <trkpt lat="42.60584" lon="2.59759">
        <ele>563.99</ele>
        <time>2021-10-29T16:36:18Z</time>
      </trkpt>
      <trkpt lat="42.60602" lon="2.59765">
        <ele>561.67</ele>
        <time>2021-10-29T16:36:18Z</time>
      </trkpt>
      <trkpt lat="42.60621" lon="2.59764">
        <ele>561.07</ele>
        <time>2021-10-29T16:36:18Z</time>
      </trkpt>
      <trkpt lat="42.60641" lon="2.59757">
        <ele>561.16</ele>
        <time>2021-10-29T16:36:18Z</time>
      </trkpt>
      <trkpt lat="42.60653" lon="2.59748">
        <ele>560.92</ele>
        <time>2021-10-29T16:36:18Z</time>
      </trkpt>
      <trkpt lat="42.60662" lon="2.59743">
        <ele>560.4</ele>
        <time>2021-10-29T16:36:18Z</time>
      </trkpt>
      <trkpt lat="42.60677" lon="2.59735">
        <ele>559.55</ele>
        <time>2021-10-29T16:36:18Z</time>
      </trkpt>
      <trkpt lat="42.60695" lon="2.59725">
        <ele>558.75</ele>
        <time>2021-10-29T16:36:18Z</time>
      </trkpt>
      <trkpt lat="42.60716" lon="2.59707">
        <ele>558.93</ele>
        <time>2021-10-29T16:36:18Z</time>
      </trkpt>
      <trkpt lat="42.60726" lon="2.597">
        <ele>558.34</ele>
        <time>2021-10-29T16:36:18Z</time>
      </trkpt>
      <trkpt lat="42.60746" lon="2.59689">
        <ele>556.25</ele>
        <time>2021-10-29T16:36:18Z</time>
      </trkpt>
      <trkpt lat="42.60762" lon="2.59681">
        <ele>553.16</ele>
        <time>2021-10-29T16:36:18Z</time>
      </trkpt>
      <trkpt lat="42.60777" lon="2.59669">
        <ele>550.45</ele>
        <time>2021-10-29T16:36:18Z</time>
      </trkpt>
      <trkpt lat="42.60796" lon="2.59656">
        <ele>546.51</ele>
        <time>2021-10-29T16:36:18Z</time>
      </trkpt>
      <trkpt lat="42.60805" lon="2.59643">
        <ele>544.73</ele>
        <time>2021-10-29T16:36:18Z</time>
      </trkpt>
      <trkpt lat="42.60804" lon="2.59628">
        <ele>545.59</ele>
        <time>2021-10-29T16:36:18Z</time>
      </trkpt>
      <trkpt lat="42.60802" lon="2.59602">
        <ele>545.07</ele>
        <time>2021-10-29T16:36:18Z</time>
      </trkpt>
      <trkpt lat="42.608" lon="2.59585">
        <ele>544.46</ele>
        <time>2021-10-29T16:36:18Z</time>
      </trkpt>
      <trkpt lat="42.608" lon="2.59567">
        <ele>543.15</ele>
        <time>2021-10-29T16:36:18Z</time>
      </trkpt>
      <trkpt lat="42.60799" lon="2.59551">
        <ele>542.27</ele>
        <time>2021-10-29T16:36:18Z</time>
      </trkpt>
      <trkpt lat="42.60794" lon="2.59538">
        <ele>542.17</ele>
        <time>2021-10-29T16:36:18Z</time>
      </trkpt>
      <trkpt lat="42.60784" lon="2.59522">
        <ele>543.89</ele>
        <time>2021-10-29T16:36:18Z</time>
      </trkpt>
      <trkpt lat="42.60776" lon="2.5951">
        <ele>545.7</ele>
        <time>2021-10-29T16:36:18Z</time>
      </trkpt>
      <trkpt lat="42.6076" lon="2.59481">
        <ele>549.19</ele>
        <time>2021-10-29T16:36:18Z</time>
      </trkpt>
      <trkpt lat="42.60754" lon="2.59466">
        <ele>549.53</ele>
        <time>2021-10-29T16:36:18Z</time>
      </trkpt>
      <trkpt lat="42.60746" lon="2.59444">
        <ele>549.81</ele>
        <time>2021-10-29T16:36:18Z</time>
      </trkpt>
      <trkpt lat="42.60741" lon="2.59426">
        <ele>549.44</ele>
        <time>2021-10-29T16:36:18Z</time>
      </trkpt>
      <trkpt lat="42.60734" lon="2.59404">
        <ele>548.97</ele>
        <time>2021-10-29T16:36:18Z</time>
      </trkpt>
      <trkpt lat="42.60728" lon="2.59384">
        <ele>548.01</ele>
        <time>2021-10-29T16:36:18Z</time>
      </trkpt>
      <trkpt lat="42.6072" lon="2.59369">
        <ele>549.12</ele>
        <time>2021-10-29T16:36:18Z</time>
      </trkpt>
      <trkpt lat="42.60711" lon="2.59353">
        <ele>550.71</ele>
        <time>2021-10-29T16:36:18Z</time>
      </trkpt>
      <trkpt lat="42.60703" lon="2.59333">
        <ele>551.41</ele>
        <time>2021-10-29T16:36:18Z</time>
      </trkpt>
      <trkpt lat="42.60698" lon="2.59314">
        <ele>550.77</ele>
        <time>2021-10-29T16:36:18Z</time>
      </trkpt>
      <trkpt lat="42.60694" lon="2.59294">
        <ele>549.57</ele>
        <time>2021-10-29T16:36:18Z</time>
      </trkpt>
      <trkpt lat="42.60692" lon="2.59278">
        <ele>548.06</ele>
        <time>2021-10-29T16:36:18Z</time>
      </trkpt>
      <trkpt lat="42.60687" lon="2.59265">
        <ele>548.68</ele>
        <time>2021-10-29T16:36:18Z</time>
      </trkpt>
      <trkpt lat="42.60679" lon="2.59248">
        <ele>550.28</ele>
        <time>2021-10-29T16:36:18Z</time>
      </trkpt>
      <trkpt lat="42.60674" lon="2.59236">
        <ele>551.12</ele>
        <time>2021-10-29T16:36:18Z</time>
      </trkpt>
      <trkpt lat="42.60671" lon="2.5922">
        <ele>550.41</ele>
        <time>2021-10-29T16:36:18Z</time>
      </trkpt>
      <trkpt lat="42.60665" lon="2.59179">
        <ele>550.11</ele>
        <time>2021-10-29T16:36:18Z</time>
      </trkpt>
      <trkpt lat="42.60657" lon="2.59159">
        <ele>552.82</ele>
        <time>2021-10-29T16:36:18Z</time>
      </trkpt>
      <trkpt lat="42.60653" lon="2.5914">
        <ele>553.53</ele>
        <time>2021-10-29T16:36:18Z</time>
      </trkpt>
      <trkpt lat="42.60649" lon="2.59124">
        <ele>555.73</ele>
        <time>2021-10-29T16:36:18Z</time>
      </trkpt>
      <trkpt lat="42.60642" lon="2.59102">
        <ele>559.14</ele>
        <time>2021-10-29T16:36:18Z</time>
      </trkpt>
      <trkpt lat="42.60644" lon="2.59085">
        <ele>558.46</ele>
        <time>2021-10-29T16:36:18Z</time>
      </trkpt>
      <trkpt lat="42.6065" lon="2.59066">
        <ele>557.02</ele>
        <time>2021-10-29T16:36:18Z</time>
      </trkpt>
      <trkpt lat="42.60653" lon="2.59052">
        <ele>557.9</ele>
        <time>2021-10-29T16:36:18Z</time>
      </trkpt>
      <trkpt lat="42.60658" lon="2.59029">
        <ele>559.47</ele>
        <time>2021-10-29T16:36:18Z</time>
      </trkpt>
      <trkpt lat="42.60666" lon="2.59009">
        <ele>559.75</ele>
        <time>2021-10-29T16:36:18Z</time>
      </trkpt>
      <trkpt lat="42.60671" lon="2.58995">
        <ele>559.26</ele>
        <time>2021-10-29T16:36:18Z</time>
      </trkpt>
      <trkpt lat="42.60672" lon="2.58977">
        <ele>559.43</ele>
        <time>2021-10-29T16:36:18Z</time>
      </trkpt>
      <trkpt lat="42.60667" lon="2.58956">
        <ele>561.13</ele>
        <time>2021-10-29T16:36:18Z</time>
      </trkpt>
      <trkpt lat="42.60664" lon="2.58936">
        <ele>561.98</ele>
        <time>2021-10-29T16:36:18Z</time>
      </trkpt>
      <trkpt lat="42.60659" lon="2.58913">
        <ele>565.04</ele>
        <time>2021-10-29T16:36:18Z</time>
      </trkpt>
      <trkpt lat="42.60652" lon="2.58894">
        <ele>567.7</ele>
        <time>2021-10-29T16:36:18Z</time>
      </trkpt>
      <trkpt lat="42.60648" lon="2.58877">
        <ele>569.49</ele>
        <time>2021-10-29T16:36:18Z</time>
      </trkpt>
      <trkpt lat="42.60642" lon="2.58863">
        <ele>571.21</ele>
        <time>2021-10-29T16:36:18Z</time>
      </trkpt>
      <trkpt lat="42.60634" lon="2.5885">
        <ele>574.53</ele>
        <time>2021-10-29T16:36:18Z</time>
      </trkpt>
      <trkpt lat="42.6063" lon="2.58837">
        <ele>578.13</ele>
        <time>2021-10-29T16:36:18Z</time>
      </trkpt>
      <trkpt lat="42.60635" lon="2.58824">
        <ele>579.51</ele>
        <time>2021-10-29T16:36:18Z</time>
      </trkpt>
      <trkpt lat="42.60645" lon="2.58827">
        <ele>578.79</ele>
        <time>2021-10-29T16:36:18Z</time>
      </trkpt>
      <trkpt lat="42.60657" lon="2.58834">
        <ele>577.17</ele>
        <time>2021-10-29T16:36:18Z</time>
      </trkpt>
      <trkpt lat="42.60665" lon="2.58843">
        <ele>574.97</ele>
        <time>2021-10-29T16:36:18Z</time>
      </trkpt>
      <trkpt lat="42.60687" lon="2.58865">
        <ele>568.84</ele>
        <time>2021-10-29T16:36:18Z</time>
      </trkpt>
      <trkpt lat="42.60701" lon="2.5887">
        <ele>567.28</ele>
        <time>2021-10-29T16:36:18Z</time>
      </trkpt>
      <trkpt lat="42.60715" lon="2.58868">
        <ele>568.94</ele>
        <time>2021-10-29T16:36:18Z</time>
      </trkpt>
      <trkpt lat="42.60731" lon="2.58886">
        <ele>567.63</ele>
        <time>2021-10-29T16:36:18Z</time>
      </trkpt>
      <trkpt lat="42.60736" lon="2.58899">
        <ele>565.82</ele>
        <time>2021-10-29T16:36:18Z</time>
      </trkpt>
      <trkpt lat="42.60745" lon="2.58914">
        <ele>564.16</ele>
        <time>2021-10-29T16:36:18Z</time>
      </trkpt>
      <trkpt lat="42.60753" lon="2.58923">
        <ele>563.5</ele>
        <time>2021-10-29T16:36:18Z</time>
      </trkpt>
      <trkpt lat="42.60765" lon="2.58939">
        <ele>561.9</ele>
        <time>2021-10-29T16:36:18Z</time>
      </trkpt>
      <trkpt lat="42.60776" lon="2.5895">
        <ele>560.64</ele>
        <time>2021-10-29T16:36:18Z</time>
      </trkpt>
      <trkpt lat="42.60785" lon="2.58961">
        <ele>559.28</ele>
        <time>2021-10-29T16:36:18Z</time>
      </trkpt>
      <trkpt lat="42.60791" lon="2.58971">
        <ele>557.99</ele>
        <time>2021-10-29T16:36:18Z</time>
      </trkpt>
      <trkpt lat="42.60802" lon="2.58974">
        <ele>558.98</ele>
        <time>2021-10-29T16:36:18Z</time>
      </trkpt>
      <trkpt lat="42.60813" lon="2.58969">
        <ele>561.46</ele>
        <time>2021-10-29T16:36:18Z</time>
      </trkpt>
      <trkpt lat="42.60826" lon="2.58956">
        <ele>565.27</ele>
        <time>2021-10-29T16:36:18Z</time>
      </trkpt>
      <trkpt lat="42.60834" lon="2.58947">
        <ele>567.51</ele>
        <time>2021-10-29T16:36:18Z</time>
      </trkpt>
      <trkpt lat="42.6084" lon="2.58937">
        <ele>569.48</ele>
        <time>2021-10-29T16:36:18Z</time>
      </trkpt>
      <trkpt lat="42.60845" lon="2.58926">
        <ele>570.6</ele>
        <time>2021-10-29T16:36:18Z</time>
      </trkpt>
      <trkpt lat="42.60851" lon="2.58912">
        <ele>571.75</ele>
        <time>2021-10-29T16:36:18Z</time>
      </trkpt>
      <trkpt lat="42.60859" lon="2.58896">
        <ele>572.9</ele>
        <time>2021-10-29T16:36:18Z</time>
      </trkpt>
      <trkpt lat="42.60862" lon="2.58883">
        <ele>574.49</ele>
        <time>2021-10-29T16:36:18Z</time>
      </trkpt>
      <trkpt lat="42.60867" lon="2.58872">
        <ele>575.42</ele>
        <time>2021-10-29T16:36:18Z</time>
      </trkpt>
      <trkpt lat="42.60877" lon="2.58851">
        <ele>577.7</ele>
        <time>2021-10-29T16:36:18Z</time>
      </trkpt>
      <trkpt lat="42.60884" lon="2.58839">
        <ele>578.92</ele>
        <time>2021-10-29T16:36:18Z</time>
      </trkpt>
      <trkpt lat="42.60894" lon="2.58825">
        <ele>580.03</ele>
        <time>2021-10-29T16:36:18Z</time>
      </trkpt>
      <trkpt lat="42.60917" lon="2.58807">
        <ele>580.59</ele>
        <time>2021-10-29T16:36:18Z</time>
      </trkpt>
      <trkpt lat="42.60931" lon="2.58801">
        <ele>581.21</ele>
        <time>2021-10-29T16:36:18Z</time>
      </trkpt>
      <trkpt lat="42.60941" lon="2.58792">
        <ele>582.78</ele>
        <time>2021-10-29T16:36:18Z</time>
      </trkpt>
      <trkpt lat="42.60948" lon="2.58784">
        <ele>584.36</ele>
        <time>2021-10-29T16:36:18Z</time>
      </trkpt>
      <trkpt lat="42.60965" lon="2.58776">
        <ele>585.3</ele>
        <time>2021-10-29T16:36:18Z</time>
      </trkpt>
      <trkpt lat="42.60978" lon="2.58772">
        <ele>585.44</ele>
        <time>2021-10-29T16:36:18Z</time>
      </trkpt>
      <trkpt lat="42.60987" lon="2.58769">
        <ele>586.94</ele>
        <time>2021-10-29T16:36:18Z</time>
      </trkpt>
      <trkpt lat="42.60996" lon="2.58764">
        <ele>588.93</ele>
        <time>2021-10-29T16:36:18Z</time>
      </trkpt>
      <trkpt lat="42.61016" lon="2.58755">
        <ele>592.68</ele>
        <time>2021-10-29T16:36:18Z</time>
      </trkpt>
      <trkpt lat="42.6103" lon="2.58752">
        <ele>594.54</ele>
        <time>2021-10-29T16:36:18Z</time>
      </trkpt>
      <trkpt lat="42.61044" lon="2.58766">
        <ele>593.56</ele>
        <time>2021-10-29T16:36:18Z</time>
      </trkpt>
      <trkpt lat="42.61049" lon="2.58777">
        <ele>592.52</ele>
        <time>2021-10-29T16:36:18Z</time>
      </trkpt>
      <trkpt lat="42.61049" lon="2.5879">
        <ele>590.45</ele>
        <time>2021-10-29T16:36:18Z</time>
      </trkpt>
      <trkpt lat="42.61053" lon="2.58802">
        <ele>589.38</ele>
        <time>2021-10-29T16:36:18Z</time>
      </trkpt>
      <trkpt lat="42.61062" lon="2.58831">
        <ele>586.31</ele>
        <time>2021-10-29T16:36:18Z</time>
      </trkpt>
      <trkpt lat="42.61064" lon="2.58843">
        <ele>584.62</ele>
        <time>2021-10-29T16:36:18Z</time>
      </trkpt>
      <trkpt lat="42.6107" lon="2.5885">
        <ele>584.7</ele>
        <time>2021-10-29T16:36:18Z</time>
      </trkpt>
      <trkpt lat="42.61072" lon="2.5886">
        <ele>583.35</ele>
        <time>2021-10-29T16:36:18Z</time>
      </trkpt>
      <trkpt lat="42.61081" lon="2.58868">
        <ele>583.66</ele>
        <time>2021-10-29T16:36:18Z</time>
      </trkpt>
      <trkpt lat="42.61078" lon="2.58869">
        <ele>582.74</ele>
        <time>2021-10-29T16:36:18Z</time>
      </trkpt>
      <trkpt lat="42.6107" lon="2.58869">
        <ele>581.01</ele>
        <time>2021-10-29T16:36:18Z</time>
      </trkpt>
      <trkpt lat="42.6107" lon="2.58853">
        <ele>584.16</ele>
        <time>2021-10-29T16:36:18Z</time>
      </trkpt>
      <trkpt lat="42.61074" lon="2.5884">
        <ele>587.39</ele>
        <time>2021-10-29T16:36:18Z</time>
      </trkpt>
      <trkpt lat="42.61076" lon="2.58824">
        <ele>590.73</ele>
        <time>2021-10-29T16:36:18Z</time>
      </trkpt>
      <trkpt lat="42.61088" lon="2.58812">
        <ele>595.66</ele>
        <time>2021-10-29T16:36:18Z</time>
      </trkpt>
      <trkpt lat="42.6109" lon="2.58799">
        <ele>598.51</ele>
        <time>2021-10-29T16:36:18Z</time>
      </trkpt>
      <trkpt lat="42.6109" lon="2.58797">
        <ele>598.88</ele>
        <time>2021-10-29T16:36:18Z</time>
      </trkpt>
      <trkpt lat="42.61088" lon="2.58813">
        <ele>595.48</ele>
        <time>2021-10-29T16:36:18Z</time>
      </trkpt>
      <trkpt lat="42.61096" lon="2.58828">
        <ele>594.54</ele>
        <time>2021-10-29T16:36:18Z</time>
      </trkpt>
      <trkpt lat="42.61105" lon="2.58822">
        <ele>597.7</ele>
        <time>2021-10-29T16:36:18Z</time>
      </trkpt>
      <trkpt lat="42.6111" lon="2.58812">
        <ele>600.72</ele>
        <time>2021-10-29T16:36:18Z</time>
      </trkpt>
      <trkpt lat="42.61117" lon="2.58802">
        <ele>604.21</ele>
        <time>2021-10-29T16:36:18Z</time>
      </trkpt>
      <trkpt lat="42.61124" lon="2.58793">
        <ele>607.18</ele>
        <time>2021-10-29T16:36:18Z</time>
      </trkpt>
      <trkpt lat="42.61134" lon="2.58782">
        <ele>610.69</ele>
        <time>2021-10-29T16:36:18Z</time>
      </trkpt>
      <trkpt lat="42.6114" lon="2.58766">
        <ele>613.97</ele>
        <time>2021-10-29T16:36:18Z</time>
      </trkpt>
      <trkpt lat="42.61145" lon="2.58749">
        <ele>617.18</ele>
        <time>2021-10-29T16:36:18Z</time>
      </trkpt>
      <trkpt lat="42.61146" lon="2.58742">
        <ele>618.27</ele>
        <time>2021-10-29T16:36:18Z</time>
      </trkpt>
      <trkpt lat="42.61137" lon="2.58733">
        <ele>617.29</ele>
        <time>2021-10-29T16:36:18Z</time>
      </trkpt>
      <trkpt lat="42.61139" lon="2.5872">
        <ele>619.05</ele>
        <time>2021-10-29T16:36:18Z</time>
      </trkpt>
      <trkpt lat="42.61138" lon="2.58705">
        <ele>620.16</ele>
        <time>2021-10-29T16:36:18Z</time>
      </trkpt>
      <trkpt lat="42.61138" lon="2.58688">
        <ele>621.66</ele>
        <time>2021-10-29T16:36:18Z</time>
      </trkpt>
      <trkpt lat="42.61135" lon="2.58669">
        <ele>622.87</ele>
        <time>2021-10-29T16:36:18Z</time>
      </trkpt>
      <trkpt lat="42.61133" lon="2.5865">
        <ele>624.23</ele>
        <time>2021-10-29T16:36:18Z</time>
      </trkpt>
      <trkpt lat="42.61129" lon="2.58634">
        <ele>625.15</ele>
        <time>2021-10-29T16:36:18Z</time>
      </trkpt>
      <trkpt lat="42.6113" lon="2.58615">
        <ele>626.89</ele>
        <time>2021-10-29T16:36:18Z</time>
      </trkpt>
      <trkpt lat="42.61132" lon="2.58598">
        <ele>628.4</ele>
        <time>2021-10-29T16:36:18Z</time>
      </trkpt>
      <trkpt lat="42.61134" lon="2.58581">
        <ele>629.76</ele>
        <time>2021-10-29T16:36:18Z</time>
      </trkpt>
      <trkpt lat="42.61136" lon="2.58568">
        <ele>630.68</ele>
        <time>2021-10-29T16:36:18Z</time>
      </trkpt>
      <trkpt lat="42.61144" lon="2.58554">
        <ele>631.1</ele>
        <time>2021-10-29T16:36:18Z</time>
      </trkpt>
      <trkpt lat="42.61155" lon="2.58544">
        <ele>630.58</ele>
        <time>2021-10-29T16:36:18Z</time>
      </trkpt>
      <trkpt lat="42.61159" lon="2.5853">
        <ele>630.54</ele>
        <time>2021-10-29T16:36:18Z</time>
      </trkpt>
      <trkpt lat="42.61163" lon="2.5851">
        <ele>630.24</ele>
        <time>2021-10-29T16:36:18Z</time>
      </trkpt>
      <trkpt lat="42.61165" lon="2.58498">
        <ele>629.92</ele>
        <time>2021-10-29T16:36:18Z</time>
      </trkpt>
      <trkpt lat="42.61158" lon="2.58486">
        <ele>631.56</ele>
        <time>2021-10-29T16:36:18Z</time>
      </trkpt>
      <trkpt lat="42.61148" lon="2.58491">
        <ele>633.64</ele>
        <time>2021-10-29T16:36:18Z</time>
      </trkpt>
      <trkpt lat="42.61143" lon="2.58485">
        <ele>635.06</ele>
        <time>2021-10-29T16:36:18Z</time>
      </trkpt>
      <trkpt lat="42.6114" lon="2.58471">
        <ele>636.6</ele>
        <time>2021-10-29T16:36:18Z</time>
      </trkpt>
      <trkpt lat="42.61133" lon="2.58462">
        <ele>639.15</ele>
        <time>2021-10-29T16:36:18Z</time>
      </trkpt>
      <trkpt lat="42.6113" lon="2.58448">
        <ele>641.21</ele>
        <time>2021-10-29T16:36:18Z</time>
      </trkpt>
      <trkpt lat="42.61135" lon="2.58431">
        <ele>641.12</ele>
        <time>2021-10-29T16:36:18Z</time>
      </trkpt>
      <trkpt lat="42.61132" lon="2.58412">
        <ele>643.77</ele>
        <time>2021-10-29T16:36:18Z</time>
      </trkpt>
      <trkpt lat="42.61131" lon="2.584">
        <ele>645.18</ele>
        <time>2021-10-29T16:36:18Z</time>
      </trkpt>
      <trkpt lat="42.61124" lon="2.58383">
        <ele>649.3</ele>
        <time>2021-10-29T16:36:18Z</time>
      </trkpt>
      <trkpt lat="42.61126" lon="2.58371">
        <ele>650.02</ele>
        <time>2021-10-29T16:36:18Z</time>
      </trkpt>
      <trkpt lat="42.61126" lon="2.5837">
        <ele>650.14</ele>
        <time>2021-10-29T16:36:18Z</time>
      </trkpt>
      <trkpt lat="42.61112" lon="2.58376">
        <ele>654.39</ele>
        <time>2021-10-29T16:36:18Z</time>
      </trkpt>
      <trkpt lat="42.61103" lon="2.58376">
        <ele>657.47</ele>
        <time>2021-10-29T16:36:18Z</time>
      </trkpt>
      <trkpt lat="42.61089" lon="2.58373">
        <ele>662.69</ele>
        <time>2021-10-29T16:36:18Z</time>
      </trkpt>
      <trkpt lat="42.61081" lon="2.58359">
        <ele>667.49</ele>
        <time>2021-10-29T16:36:18Z</time>
      </trkpt>
      <trkpt lat="42.61072" lon="2.58347">
        <ele>672.55</ele>
        <time>2021-10-29T16:36:18Z</time>
      </trkpt>
      <trkpt lat="42.61063" lon="2.5834">
        <ele>676.98</ele>
        <time>2021-10-29T16:36:18Z</time>
      </trkpt>
      <trkpt lat="42.61056" lon="2.58336">
        <ele>680.26</ele>
        <time>2021-10-29T16:36:18Z</time>
      </trkpt>
      <trkpt lat="42.61043" lon="2.58337">
        <ele>684.94</ele>
        <time>2021-10-29T16:36:18Z</time>
      </trkpt>
      <trkpt lat="42.61037" lon="2.58334">
        <ele>687.7</ele>
        <time>2021-10-29T16:36:18Z</time>
      </trkpt>
      <trkpt lat="42.6103" lon="2.58334">
        <ele>690.29</ele>
        <time>2021-10-29T16:36:18Z</time>
      </trkpt>
      <trkpt lat="42.6102" lon="2.58328">
        <ele>695.25</ele>
        <time>2021-10-29T16:36:18Z</time>
      </trkpt>
      <trkpt lat="42.61014" lon="2.5832">
        <ele>699.26</ele>
        <time>2021-10-29T16:36:18Z</time>
      </trkpt>
      <trkpt lat="42.61012" lon="2.58315">
        <ele>701.13</ele>
        <time>2021-10-29T16:36:18Z</time>
      </trkpt>
      <trkpt lat="42.61011" lon="2.58302">
        <ele>704.29</ele>
        <time>2021-10-29T16:36:18Z</time>
      </trkpt>
      <trkpt lat="42.61006" lon="2.5829">
        <ele>708.96</ele>
        <time>2021-10-29T16:36:18Z</time>
      </trkpt>
      <trkpt lat="42.61002" lon="2.58276">
        <ele>713.76</ele>
        <time>2021-10-29T16:36:18Z</time>
      </trkpt>
      <trkpt lat="42.60992" lon="2.5827">
        <ele>719.52</ele>
        <time>2021-10-29T16:36:18Z</time>
      </trkpt>
      <trkpt lat="42.60989" lon="2.58258">
        <ele>723.68</ele>
        <time>2021-10-29T16:36:18Z</time>
      </trkpt>
      <trkpt lat="42.60984" lon="2.58251">
        <ele>727.65</ele>
        <time>2021-10-29T16:36:18Z</time>
      </trkpt>
      <trkpt lat="42.60982" lon="2.58239">
        <ele>730.94</ele>
        <time>2021-10-29T16:36:18Z</time>
      </trkpt>
      <trkpt lat="42.60979" lon="2.58226">
        <ele>734.6</ele>
        <time>2021-10-29T16:36:18Z</time>
      </trkpt>
      <trkpt lat="42.60971" lon="2.58212">
        <ele>740.61</ele>
        <time>2021-10-29T16:36:18Z</time>
      </trkpt>
      <trkpt lat="42.60963" lon="2.58198">
        <ele>746.75</ele>
        <time>2021-10-29T16:36:18Z</time>
      </trkpt>
      <trkpt lat="42.60955" lon="2.5819">
        <ele>751.9</ele>
        <time>2021-10-29T16:36:18Z</time>
      </trkpt>
      <trkpt lat="42.60945" lon="2.58194">
        <ele>755.7</ele>
        <time>2021-10-29T16:36:18Z</time>
      </trkpt>
      <trkpt lat="42.60939" lon="2.58184">
        <ele>760.44</ele>
        <time>2021-10-29T16:36:18Z</time>
      </trkpt>
      <trkpt lat="42.6093" lon="2.58177">
        <ele>766.05</ele>
        <time>2021-10-29T16:36:18Z</time>
      </trkpt>
      <trkpt lat="42.60921" lon="2.58168">
        <ele>772.1</ele>
        <time>2021-10-29T16:36:18Z</time>
      </trkpt>
      <trkpt lat="42.60912" lon="2.58164">
        <ele>777.09</ele>
        <time>2021-10-29T16:36:18Z</time>
      </trkpt>
      <trkpt lat="42.60902" lon="2.58157">
        <ele>782.11</ele>
        <time>2021-10-29T16:36:18Z</time>
      </trkpt>
      <trkpt lat="42.60893" lon="2.5815">
        <ele>786.62</ele>
        <time>2021-10-29T16:36:18Z</time>
      </trkpt>
      <trkpt lat="42.60886" lon="2.58142">
        <ele>790.75</ele>
        <time>2021-10-29T16:36:18Z</time>
      </trkpt>
      <trkpt lat="42.6088" lon="2.58137">
        <ele>793.92</ele>
        <time>2021-10-29T16:36:18Z</time>
      </trkpt>
      <trkpt lat="42.60873" lon="2.58132">
        <ele>797.49</ele>
        <time>2021-10-29T16:36:18Z</time>
      </trkpt>
      <trkpt lat="42.6086" lon="2.58129">
        <ele>802.75</ele>
        <time>2021-10-29T16:36:18Z</time>
      </trkpt>
      <trkpt lat="42.60849" lon="2.58127">
        <ele>807.11</ele>
        <time>2021-10-29T16:36:18Z</time>
      </trkpt>
      <trkpt lat="42.60845" lon="2.58118">
        <ele>810.73</ele>
        <time>2021-10-29T16:36:18Z</time>
      </trkpt>
      <trkpt lat="42.60842" lon="2.58109">
        <ele>814.04</ele>
        <time>2021-10-29T16:36:18Z</time>
      </trkpt>
      <trkpt lat="42.60838" lon="2.58091">
        <ele>819.36</ele>
        <time>2021-10-29T16:36:18Z</time>
      </trkpt>
      <trkpt lat="42.60835" lon="2.58077">
        <ele>823.44</ele>
        <time>2021-10-29T16:36:18Z</time>
      </trkpt>
      <trkpt lat="42.60828" lon="2.58069">
        <ele>826.51</ele>
        <time>2021-10-29T16:36:18Z</time>
      </trkpt>
      <trkpt lat="42.60819" lon="2.58062">
        <ele>829.69</ele>
        <time>2021-10-29T16:36:18Z</time>
      </trkpt>
      <trkpt lat="42.60811" lon="2.58052">
        <ele>833.74</ele>
        <time>2021-10-29T16:36:18Z</time>
      </trkpt>
      <trkpt lat="42.60812" lon="2.58038">
        <ele>837.77</ele>
        <time>2021-10-29T16:36:18Z</time>
      </trkpt>
      <trkpt lat="42.60814" lon="2.58022">
        <ele>842.42</ele>
        <time>2021-10-29T16:36:18Z</time>
      </trkpt>
      <trkpt lat="42.60811" lon="2.58009">
        <ele>847.08</ele>
        <time>2021-10-29T16:36:18Z</time>
      </trkpt>
      <trkpt lat="42.60804" lon="2.57999">
        <ele>851.73</ele>
        <time>2021-10-29T16:36:18Z</time>
      </trkpt>
      <trkpt lat="42.60804" lon="2.57987">
        <ele>855.62</ele>
        <time>2021-10-29T16:36:18Z</time>
      </trkpt>
      <trkpt lat="42.60802" lon="2.57977">
        <ele>859.35</ele>
        <time>2021-10-29T16:36:18Z</time>
      </trkpt>
      <trkpt lat="42.60804" lon="2.57961">
        <ele>864.11</ele>
        <time>2021-10-29T16:36:18Z</time>
      </trkpt>
      <trkpt lat="42.60803" lon="2.57948">
        <ele>868.66</ele>
        <time>2021-10-29T16:36:18Z</time>
      </trkpt>
      <trkpt lat="42.60797" lon="2.57935">
        <ele>874.59</ele>
        <time>2021-10-29T16:36:18Z</time>
      </trkpt>
      <trkpt lat="42.60789" lon="2.57936">
        <ele>876.42</ele>
        <time>2021-10-29T16:36:18Z</time>
      </trkpt>
      <trkpt lat="42.60777" lon="2.57932">
        <ele>881.06</ele>
        <time>2021-10-29T16:36:18Z</time>
      </trkpt>
      <trkpt lat="42.60768" lon="2.57924">
        <ele>885.79</ele>
        <time>2021-10-29T16:36:18Z</time>
      </trkpt>
      <trkpt lat="42.60759" lon="2.57922">
        <ele>887.97</ele>
        <time>2021-10-29T16:36:18Z</time>
      </trkpt>
      <trkpt lat="42.60749" lon="2.57916">
        <ele>891.79</ele>
        <time>2021-10-29T16:36:18Z</time>
      </trkpt>
      <trkpt lat="42.60736" lon="2.57911">
        <ele>895.82</ele>
        <time>2021-10-29T16:36:18Z</time>
      </trkpt>
      <trkpt lat="42.60726" lon="2.57904">
        <ele>900.18</ele>
        <time>2021-10-29T16:36:18Z</time>
      </trkpt>
      <trkpt lat="42.60716" lon="2.57898">
        <ele>904.16</ele>
        <time>2021-10-29T16:36:18Z</time>
      </trkpt>
      <trkpt lat="42.60712" lon="2.5789">
        <ele>907.8</ele>
        <time>2021-10-29T16:36:18Z</time>
      </trkpt>
      <trkpt lat="42.60714" lon="2.57884">
        <ele>909.69</ele>
        <time>2021-10-29T16:36:18Z</time>
      </trkpt>
      <trkpt lat="42.60716" lon="2.57876">
        <ele>912.34</ele>
        <time>2021-10-29T16:36:18Z</time>
      </trkpt>
      <trkpt lat="42.6072" lon="2.57865">
        <ele>915.83</ele>
        <time>2021-10-29T16:36:18Z</time>
      </trkpt>
      <trkpt lat="42.60724" lon="2.57853">
        <ele>919.75</ele>
        <time>2021-10-29T16:36:18Z</time>
      </trkpt>
      <trkpt lat="42.60715" lon="2.57837">
        <ele>926.97</ele>
        <time>2021-10-29T16:36:18Z</time>
      </trkpt>
      <trkpt lat="42.60718" lon="2.57821">
        <ele>928.81</ele>
        <time>2021-10-29T16:36:18Z</time>
      </trkpt>
      <trkpt lat="42.60719" lon="2.57807">
        <ele>930.29</ele>
        <time>2021-10-29T16:36:18Z</time>
      </trkpt>
      <trkpt lat="42.60712" lon="2.57795">
        <ele>932.35</ele>
        <time>2021-10-29T16:36:18Z</time>
      </trkpt>
      <trkpt lat="42.60707" lon="2.57783">
        <ele>934.08</ele>
        <time>2021-10-29T16:36:18Z</time>
      </trkpt>
      <trkpt lat="42.60697" lon="2.57779">
        <ele>935.36</ele>
        <time>2021-10-29T16:36:18Z</time>
      </trkpt>
      <trkpt lat="42.60684" lon="2.57771">
        <ele>937.32</ele>
        <time>2021-10-29T16:36:18Z</time>
      </trkpt>
      <trkpt lat="42.6067" lon="2.57764">
        <ele>938.6</ele>
        <time>2021-10-29T16:36:18Z</time>
      </trkpt>
      <trkpt lat="42.60659" lon="2.57763">
        <ele>939.41</ele>
        <time>2021-10-29T16:36:18Z</time>
      </trkpt>
      <trkpt lat="42.60647" lon="2.57762">
        <ele>940.31</ele>
        <time>2021-10-29T16:36:18Z</time>
      </trkpt>
      <trkpt lat="42.60638" lon="2.5776">
        <ele>940.8</ele>
        <time>2021-10-29T16:36:18Z</time>
      </trkpt>
      <trkpt lat="42.60624" lon="2.57756">
        <ele>941.96</ele>
        <time>2021-10-29T16:36:18Z</time>
      </trkpt>
      <trkpt lat="42.60605" lon="2.5775">
        <ele>943.65</ele>
        <time>2021-10-29T16:36:18Z</time>
      </trkpt>
      <trkpt lat="42.60595" lon="2.57751">
        <ele>945.14</ele>
        <time>2021-10-29T16:36:18Z</time>
      </trkpt>
      <trkpt lat="42.60584" lon="2.57747">
        <ele>946.08</ele>
        <time>2021-10-29T16:36:18Z</time>
      </trkpt>
      <trkpt lat="42.6057" lon="2.57744">
        <ele>947.57</ele>
        <time>2021-10-29T16:36:18Z</time>
      </trkpt>
      <trkpt lat="42.60555" lon="2.57743">
        <ele>949.61</ele>
        <time>2021-10-29T16:36:18Z</time>
      </trkpt>
      <trkpt lat="42.60545" lon="2.57743">
        <ele>951.08</ele>
        <time>2021-10-29T16:36:18Z</time>
      </trkpt>
      <trkpt lat="42.60532" lon="2.57741">
        <ele>952.81</ele>
        <time>2021-10-29T16:36:18Z</time>
      </trkpt>
      <trkpt lat="42.60523" lon="2.57738">
        <ele>953.93</ele>
        <time>2021-10-29T16:36:18Z</time>
      </trkpt>
      <trkpt lat="42.60514" lon="2.5774">
        <ele>955.43</ele>
        <time>2021-10-29T16:36:18Z</time>
      </trkpt>
      <trkpt lat="42.60504" lon="2.57739">
        <ele>956.89</ele>
        <time>2021-10-29T16:36:18Z</time>
      </trkpt>
      <trkpt lat="42.6049" lon="2.57726">
        <ele>959.37</ele>
        <time>2021-10-29T16:36:18Z</time>
      </trkpt>
      <trkpt lat="42.60481" lon="2.57722">
        <ele>961.73</ele>
        <time>2021-10-29T16:36:18Z</time>
      </trkpt>
      <trkpt lat="42.60469" lon="2.57712">
        <ele>965.14</ele>
        <time>2021-10-29T16:36:18Z</time>
      </trkpt>
      <trkpt lat="42.60456" lon="2.57711">
        <ele>969</ele>
        <time>2021-10-29T16:36:18Z</time>
      </trkpt>
      <trkpt lat="42.60451" lon="2.57723">
        <ele>969.92</ele>
        <time>2021-10-29T16:36:18Z</time>
      </trkpt>
      <trkpt lat="42.60443" lon="2.57726">
        <ele>971.92</ele>
        <time>2021-10-29T16:36:18Z</time>
      </trkpt>
      <trkpt lat="42.6044" lon="2.57725">
        <ele>972.79</ele>
        <time>2021-10-29T16:36:18Z</time>
      </trkpt>
      <trkpt lat="42.60432" lon="2.57722">
        <ele>975.19</ele>
        <time>2021-10-29T16:36:18Z</time>
      </trkpt>
      <trkpt lat="42.60425" lon="2.57712">
        <ele>977.57</ele>
        <time>2021-10-29T16:36:18Z</time>
      </trkpt>
      <trkpt lat="42.60415" lon="2.57718">
        <ele>978.8</ele>
        <time>2021-10-29T16:36:18Z</time>
      </trkpt>
      <trkpt lat="42.6041" lon="2.57727">
        <ele>978.78</ele>
        <time>2021-10-29T16:36:18Z</time>
      </trkpt>
      <trkpt lat="42.60408" lon="2.57718">
        <ele>980.03</ele>
        <time>2021-10-29T16:36:18Z</time>
      </trkpt>
      <trkpt lat="42.60396" lon="2.57717">
        <ele>982.26</ele>
        <time>2021-10-29T16:36:18Z</time>
      </trkpt>
      <trkpt lat="42.60387" lon="2.5772">
        <ele>983.52</ele>
        <time>2021-10-29T16:36:18Z</time>
      </trkpt>
      <trkpt lat="42.60377" lon="2.57722">
        <ele>985.03</ele>
        <time>2021-10-29T16:36:18Z</time>
      </trkpt>
      <trkpt lat="42.60363" lon="2.57724">
        <ele>987.21</ele>
        <time>2021-10-29T16:36:18Z</time>
      </trkpt>
      <trkpt lat="42.60358" lon="2.5772">
        <ele>988.04</ele>
        <time>2021-10-29T16:36:18Z</time>
      </trkpt>
      <trkpt lat="42.60353" lon="2.57716">
        <ele>988.4</ele>
        <time>2021-10-29T16:36:18Z</time>
      </trkpt>
      <trkpt lat="42.60351" lon="2.57715">
        <ele>988.46</ele>
        <time>2021-10-29T16:36:18Z</time>
      </trkpt>
      <trkpt lat="42.60342" lon="2.57709">
        <ele>988.88</ele>
        <time>2021-10-29T16:36:18Z</time>
      </trkpt>
      <trkpt lat="42.60333" lon="2.57708">
        <ele>988.66</ele>
        <time>2021-10-29T16:36:18Z</time>
      </trkpt>
      <trkpt lat="42.60323" lon="2.57707">
        <ele>988.39</ele>
        <time>2021-10-29T16:36:18Z</time>
      </trkpt>
      <trkpt lat="42.60313" lon="2.57712">
        <ele>987.51</ele>
        <time>2021-10-29T16:36:18Z</time>
      </trkpt>
      <trkpt lat="42.60305" lon="2.57723">
        <ele>986.18</ele>
        <time>2021-10-29T16:36:18Z</time>
      </trkpt>
      <trkpt lat="42.60296" lon="2.5773">
        <ele>985.3</ele>
        <time>2021-10-29T16:36:18Z</time>
      </trkpt>
      <trkpt lat="42.60285" lon="2.57734">
        <ele>983.74</ele>
        <time>2021-10-29T16:36:18Z</time>
      </trkpt>
      <trkpt lat="42.60275" lon="2.57742">
        <ele>981.64</ele>
        <time>2021-10-29T16:36:18Z</time>
      </trkpt>
      <trkpt lat="42.60266" lon="2.57745">
        <ele>980.14</ele>
        <time>2021-10-29T16:36:18Z</time>
      </trkpt>
      <trkpt lat="42.60258" lon="2.5775">
        <ele>978.77</ele>
        <time>2021-10-29T16:36:18Z</time>
      </trkpt>
      <trkpt lat="42.60249" lon="2.57752">
        <ele>977.46</ele>
        <time>2021-10-29T16:36:18Z</time>
      </trkpt>
      <trkpt lat="42.60243" lon="2.57768">
        <ele>975.95</ele>
        <time>2021-10-29T16:36:18Z</time>
      </trkpt>
      <trkpt lat="42.60241" lon="2.57776">
        <ele>973.68</ele>
        <time>2021-10-29T16:36:18Z</time>
      </trkpt>
      <trkpt lat="42.60228" lon="2.5778">
        <ele>971.65</ele>
        <time>2021-10-29T16:36:18Z</time>
      </trkpt>
      <trkpt lat="42.60222" lon="2.57794">
        <ele>968.34</ele>
        <time>2021-10-29T16:36:18Z</time>
      </trkpt>
      <trkpt lat="42.6021" lon="2.57792">
        <ele>967.85</ele>
        <time>2021-10-29T16:36:18Z</time>
      </trkpt>
      <trkpt lat="42.60211" lon="2.57795">
        <ele>967.44</ele>
        <time>2021-10-29T16:36:18Z</time>
      </trkpt>
      <trkpt lat="42.60204" lon="2.57787">
        <ele>968.09</ele>
        <time>2021-10-29T16:36:18Z</time>
      </trkpt>
      <trkpt lat="42.60193" lon="2.57779">
        <ele>967.89</ele>
        <time>2021-10-29T16:36:18Z</time>
      </trkpt>
      <trkpt lat="42.60181" lon="2.57771">
        <ele>966.95</ele>
        <time>2021-10-29T16:36:18Z</time>
      </trkpt>
      <trkpt lat="42.60148" lon="2.57791">
        <ele>963.49</ele>
        <time>2021-10-29T16:36:18Z</time>
      </trkpt>
      <trkpt lat="42.60138" lon="2.57793">
        <ele>963.26</ele>
        <time>2021-10-29T16:36:18Z</time>
      </trkpt>
      <trkpt lat="42.60117" lon="2.57793">
        <ele>962.62</ele>
        <time>2021-10-29T16:36:18Z</time>
      </trkpt>
      <trkpt lat="42.60103" lon="2.5779">
        <ele>961.94</ele>
        <time>2021-10-29T16:36:18Z</time>
      </trkpt>
      <trkpt lat="42.60093" lon="2.57792">
        <ele>961.8</ele>
        <time>2021-10-29T16:36:18Z</time>
      </trkpt>
      <trkpt lat="42.6008" lon="2.57802">
        <ele>962.2</ele>
        <time>2021-10-29T16:36:18Z</time>
      </trkpt>
      <trkpt lat="42.60071" lon="2.57814">
        <ele>962.96</ele>
        <time>2021-10-29T16:36:18Z</time>
      </trkpt>
      <trkpt lat="42.60054" lon="2.57824">
        <ele>963.21</ele>
        <time>2021-10-29T16:36:18Z</time>
      </trkpt>
      <trkpt lat="42.60044" lon="2.57831">
        <ele>963.6</ele>
        <time>2021-10-29T16:36:18Z</time>
      </trkpt>
      <trkpt lat="42.60035" lon="2.57835">
        <ele>963.72</ele>
        <time>2021-10-29T16:36:18Z</time>
      </trkpt>
      <trkpt lat="42.60021" lon="2.57839">
        <ele>962.77</ele>
        <time>2021-10-29T16:36:18Z</time>
      </trkpt>
      <trkpt lat="42.60012" lon="2.57845">
        <ele>962.05</ele>
        <time>2021-10-29T16:36:18Z</time>
      </trkpt>
      <trkpt lat="42.60003" lon="2.57851">
        <ele>961.55</ele>
        <time>2021-10-29T16:36:18Z</time>
      </trkpt>
      <trkpt lat="42.5999" lon="2.57875">
        <ele>959.65</ele>
        <time>2021-10-29T16:36:18Z</time>
      </trkpt>
      <trkpt lat="42.59974" lon="2.57884">
        <ele>959.39</ele>
        <time>2021-10-29T16:36:18Z</time>
      </trkpt>
      <trkpt lat="42.59971" lon="2.57882">
        <ele>959.62</ele>
        <time>2021-10-29T16:36:18Z</time>
      </trkpt>
      <trkpt lat="42.59936" lon="2.5787">
        <ele>961.54</ele>
        <time>2021-10-29T16:36:18Z</time>
      </trkpt>
      <trkpt lat="42.59916" lon="2.57861">
        <ele>963.06</ele>
        <time>2021-10-29T16:36:18Z</time>
      </trkpt>
      <trkpt lat="42.59907" lon="2.57857">
        <ele>963.79</ele>
        <time>2021-10-29T16:36:18Z</time>
      </trkpt>
      <trkpt lat="42.5989" lon="2.57849">
        <ele>965.29</ele>
        <time>2021-10-29T16:36:18Z</time>
      </trkpt>
      <trkpt lat="42.59879" lon="2.57838">
        <ele>966.88</ele>
        <time>2021-10-29T16:36:18Z</time>
      </trkpt>
      <trkpt lat="42.59873" lon="2.57846">
        <ele>966.73</ele>
        <time>2021-10-29T16:36:18Z</time>
      </trkpt>
      <trkpt lat="42.59862" lon="2.57847">
        <ele>967.65</ele>
        <time>2021-10-29T16:36:18Z</time>
      </trkpt>
      <trkpt lat="42.59853" lon="2.57846">
        <ele>968.59</ele>
        <time>2021-10-29T16:36:18Z</time>
      </trkpt>
      <trkpt lat="42.59837" lon="2.57837">
        <ele>971.19</ele>
        <time>2021-10-29T16:36:18Z</time>
      </trkpt>
      <trkpt lat="42.59806" lon="2.57833">
        <ele>974.54</ele>
        <time>2021-10-29T16:36:18Z</time>
      </trkpt>
      <trkpt lat="42.59796" lon="2.57833">
        <ele>975.85</ele>
        <time>2021-10-29T16:36:18Z</time>
      </trkpt>
      <trkpt lat="42.59786" lon="2.57835">
        <ele>977.3</ele>
        <time>2021-10-29T16:36:18Z</time>
      </trkpt>
      <trkpt lat="42.59776" lon="2.57834">
        <ele>978.55</ele>
        <time>2021-10-29T16:36:18Z</time>
      </trkpt>
      <trkpt lat="42.59762" lon="2.57831">
        <ele>980.2</ele>
        <time>2021-10-29T16:36:18Z</time>
      </trkpt>
      <trkpt lat="42.59751" lon="2.57831">
        <ele>981.65</ele>
        <time>2021-10-29T16:36:18Z</time>
      </trkpt>
      <trkpt lat="42.59739" lon="2.57847">
        <ele>981.98</ele>
        <time>2021-10-29T16:36:18Z</time>
      </trkpt>
      <trkpt lat="42.59708" lon="2.57849">
        <ele>987.29</ele>
        <time>2021-10-29T16:36:18Z</time>
      </trkpt>
      <trkpt lat="42.59692" lon="2.57852">
        <ele>989.81</ele>
        <time>2021-10-29T16:36:18Z</time>
      </trkpt>
      <trkpt lat="42.59683" lon="2.57856">
        <ele>990.96</ele>
        <time>2021-10-29T16:36:18Z</time>
      </trkpt>
      <trkpt lat="42.59672" lon="2.5786">
        <ele>992.46</ele>
        <time>2021-10-29T16:36:18Z</time>
      </trkpt>
      <trkpt lat="42.59659" lon="2.57865">
        <ele>993.93</ele>
        <time>2021-10-29T16:36:18Z</time>
      </trkpt>
      <trkpt lat="42.59646" lon="2.57871">
        <ele>995.36</ele>
        <time>2021-10-29T16:36:18Z</time>
      </trkpt>
      <trkpt lat="42.59636" lon="2.57875">
        <ele>996.57</ele>
        <time>2021-10-29T16:36:18Z</time>
      </trkpt>
      <trkpt lat="42.59627" lon="2.57886">
        <ele>996.97</ele>
        <time>2021-10-29T16:36:18Z</time>
      </trkpt>
      <trkpt lat="42.59611" lon="2.57893">
        <ele>999.01</ele>
        <time>2021-10-29T16:36:18Z</time>
      </trkpt>
      <trkpt lat="42.59576" lon="2.5789">
        <ele>1004.34</ele>
        <time>2021-10-29T16:36:18Z</time>
      </trkpt>
      <trkpt lat="42.59567" lon="2.57893">
        <ele>1005.38</ele>
        <time>2021-10-29T16:36:18Z</time>
      </trkpt>
      <trkpt lat="42.59557" lon="2.57901">
        <ele>1006.25</ele>
        <time>2021-10-29T16:36:18Z</time>
      </trkpt>
      <trkpt lat="42.59538" lon="2.57906">
        <ele>1008.45</ele>
        <time>2021-10-29T16:36:18Z</time>
      </trkpt>
      <trkpt lat="42.59528" lon="2.57904">
        <ele>1009.89</ele>
        <time>2021-10-29T16:36:18Z</time>
      </trkpt>
      <trkpt lat="42.59513" lon="2.57905">
        <ele>1011.24</ele>
        <time>2021-10-29T16:36:18Z</time>
      </trkpt>
      <trkpt lat="42.59501" lon="2.57908">
        <ele>1011.87</ele>
        <time>2021-10-29T16:36:18Z</time>
      </trkpt>
      <trkpt lat="42.59487" lon="2.57908">
        <ele>1013.28</ele>
        <time>2021-10-29T16:36:18Z</time>
      </trkpt>
      <trkpt lat="42.59477" lon="2.57907">
        <ele>1014.5</ele>
        <time>2021-10-29T16:36:18Z</time>
      </trkpt>
      <trkpt lat="42.59465" lon="2.57905">
        <ele>1015.9</ele>
        <time>2021-10-29T16:36:18Z</time>
      </trkpt>
      <trkpt lat="42.59453" lon="2.57901">
        <ele>1016.56</ele>
        <time>2021-10-29T16:36:18Z</time>
      </trkpt>
      <trkpt lat="42.59446" lon="2.57898">
        <ele>1016.88</ele>
        <time>2021-10-29T16:36:18Z</time>
      </trkpt>
      <trkpt lat="42.59421" lon="2.5789">
        <ele>1017.84</ele>
        <time>2021-10-29T16:36:18Z</time>
      </trkpt>
      <trkpt lat="42.59408" lon="2.57886">
        <ele>1018.31</ele>
        <time>2021-10-29T16:36:18Z</time>
      </trkpt>
      <trkpt lat="42.5939" lon="2.57888">
        <ele>1018.13</ele>
        <time>2021-10-29T16:36:18Z</time>
      </trkpt>
      <trkpt lat="42.59368" lon="2.57891">
        <ele>1017.29</ele>
        <time>2021-10-29T16:36:18Z</time>
      </trkpt>
      <trkpt lat="42.59356" lon="2.57889">
        <ele>1016.9</ele>
        <time>2021-10-29T16:36:18Z</time>
      </trkpt>
      <trkpt lat="42.59348" lon="2.57893">
        <ele>1016.58</ele>
        <time>2021-10-29T16:36:18Z</time>
      </trkpt>
      <trkpt lat="42.59336" lon="2.57901">
        <ele>1016.16</ele>
        <time>2021-10-29T16:36:18Z</time>
      </trkpt>
      <trkpt lat="42.59262" lon="2.57927">
        <ele>1008.66</ele>
        <time>2021-10-29T16:36:18Z</time>
      </trkpt>
      <trkpt lat="42.59247" lon="2.5793">
        <ele>1008.59</ele>
        <time>2021-10-29T16:36:18Z</time>
      </trkpt>
      <trkpt lat="42.59231" lon="2.57926">
        <ele>1009.71</ele>
        <time>2021-10-29T16:36:18Z</time>
      </trkpt>
      <trkpt lat="42.59226" lon="2.57922">
        <ele>1010.43</ele>
        <time>2021-10-29T16:36:18Z</time>
      </trkpt>
      <trkpt lat="42.59216" lon="2.57916">
        <ele>1011.44</ele>
        <time>2021-10-29T16:36:18Z</time>
      </trkpt>
      <trkpt lat="42.59207" lon="2.57913">
        <ele>1011.93</ele>
        <time>2021-10-29T16:36:18Z</time>
      </trkpt>
      <trkpt lat="42.59183" lon="2.57913">
        <ele>1012.64</ele>
        <time>2021-10-29T16:36:18Z</time>
      </trkpt>
      <trkpt lat="42.59171" lon="2.57915">
        <ele>1013.12</ele>
        <time>2021-10-29T16:36:18Z</time>
      </trkpt>
      <trkpt lat="42.59156" lon="2.57924">
        <ele>1013.39</ele>
        <time>2021-10-29T16:36:18Z</time>
      </trkpt>
      <trkpt lat="42.59149" lon="2.57926">
        <ele>1013.74</ele>
        <time>2021-10-29T16:36:18Z</time>
      </trkpt>
      <trkpt lat="42.59136" lon="2.57935">
        <ele>1014.24</ele>
        <time>2021-10-29T16:36:18Z</time>
      </trkpt>
      <trkpt lat="42.59113" lon="2.57946">
        <ele>1015.23</ele>
        <time>2021-10-29T16:36:18Z</time>
      </trkpt>
      <trkpt lat="42.59093" lon="2.57946">
        <ele>1015.99</ele>
        <time>2021-10-29T16:36:18Z</time>
      </trkpt>
      <trkpt lat="42.59048" lon="2.5794">
        <ele>1017.23</ele>
        <time>2021-10-29T16:36:18Z</time>
      </trkpt>
      <trkpt lat="42.59034" lon="2.57939">
        <ele>1016.84</ele>
        <time>2021-10-29T16:36:18Z</time>
      </trkpt>
      <trkpt lat="42.59014" lon="2.57935">
        <ele>1016.44</ele>
        <time>2021-10-29T16:36:18Z</time>
      </trkpt>
      <trkpt lat="42.59001" lon="2.57929">
        <ele>1016.47</ele>
        <time>2021-10-29T16:36:18Z</time>
      </trkpt>
      <trkpt lat="42.58986" lon="2.57922">
        <ele>1016.57</ele>
        <time>2021-10-29T16:36:18Z</time>
      </trkpt>
      <trkpt lat="42.5897" lon="2.57918">
        <ele>1015.56</ele>
        <time>2021-10-29T16:36:18Z</time>
      </trkpt>
      <trkpt lat="42.58958" lon="2.57913">
        <ele>1015.04</ele>
        <time>2021-10-29T16:36:18Z</time>
      </trkpt>
      <trkpt lat="42.58946" lon="2.57912">
        <ele>1014.2</ele>
        <time>2021-10-29T16:36:18Z</time>
      </trkpt>
      <trkpt lat="42.58934" lon="2.57913">
        <ele>1013.15</ele>
        <time>2021-10-29T16:36:18Z</time>
      </trkpt>
      <trkpt lat="42.58917" lon="2.57913">
        <ele>1011.91</ele>
        <time>2021-10-29T16:36:18Z</time>
      </trkpt>
      <trkpt lat="42.58909" lon="2.57914">
        <ele>1011.58</ele>
        <time>2021-10-29T16:36:18Z</time>
      </trkpt>
      <trkpt lat="42.58901" lon="2.57906">
        <ele>1012.47</ele>
        <time>2021-10-29T16:36:18Z</time>
      </trkpt>
      <trkpt lat="42.58886" lon="2.57887">
        <ele>1011.74</ele>
        <time>2021-10-29T16:36:18Z</time>
      </trkpt>
      <trkpt lat="42.58883" lon="2.57886">
        <ele>1011.72</ele>
        <time>2021-10-29T16:36:18Z</time>
      </trkpt>
      <trkpt lat="42.58862" lon="2.57879">
        <ele>1011.79</ele>
        <time>2021-10-29T16:36:18Z</time>
      </trkpt>
      <trkpt lat="42.58846" lon="2.57878">
        <ele>1012.09</ele>
        <time>2021-10-29T16:36:18Z</time>
      </trkpt>
      <trkpt lat="42.58837" lon="2.57877">
        <ele>1012.3</ele>
        <time>2021-10-29T16:36:18Z</time>
      </trkpt>
      <trkpt lat="42.58824" lon="2.57879">
        <ele>1012.55</ele>
        <time>2021-10-29T16:36:18Z</time>
      </trkpt>
      <trkpt lat="42.58805" lon="2.57874">
        <ele>1013.15</ele>
        <time>2021-10-29T16:36:18Z</time>
      </trkpt>
      <trkpt lat="42.58796" lon="2.57868">
        <ele>1013.65</ele>
        <time>2021-10-29T16:36:18Z</time>
      </trkpt>
      <trkpt lat="42.58781" lon="2.5786">
        <ele>1014.6</ele>
        <time>2021-10-29T16:36:18Z</time>
      </trkpt>
      <trkpt lat="42.58769" lon="2.57857">
        <ele>1015.79</ele>
        <time>2021-10-29T16:36:18Z</time>
      </trkpt>
      <trkpt lat="42.58754" lon="2.57855">
        <ele>1017.25</ele>
        <time>2021-10-29T16:36:18Z</time>
      </trkpt>
      <trkpt lat="42.58741" lon="2.57854">
        <ele>1018.51</ele>
        <time>2021-10-29T16:36:18Z</time>
      </trkpt>
      <trkpt lat="42.58738" lon="2.57852">
        <ele>1019.02</ele>
        <time>2021-10-29T16:36:18Z</time>
      </trkpt>
      <trkpt lat="42.58751" lon="2.57853">
        <ele>1017.72</ele>
        <time>2021-10-29T16:36:18Z</time>
      </trkpt>
      <trkpt lat="42.58762" lon="2.57854">
        <ele>1016.64</ele>
        <time>2021-10-29T16:36:18Z</time>
      </trkpt>
      <trkpt lat="42.58775" lon="2.57858">
        <ele>1015.22</ele>
        <time>2021-10-29T16:36:18Z</time>
      </trkpt>
      <trkpt lat="42.58787" lon="2.57868">
        <ele>1013.93</ele>
        <time>2021-10-29T16:36:18Z</time>
      </trkpt>
      <trkpt lat="42.58797" lon="2.57868">
        <ele>1013.62</ele>
        <time>2021-10-29T16:36:18Z</time>
      </trkpt>
      <trkpt lat="42.58805" lon="2.57875">
        <ele>1013.11</ele>
        <time>2021-10-29T16:36:18Z</time>
      </trkpt>
      <trkpt lat="42.58797" lon="2.57888">
        <ele>1012.72</ele>
        <time>2021-10-29T16:36:18Z</time>
      </trkpt>
      <trkpt lat="42.58777" lon="2.57895">
        <ele>1012.65</ele>
        <time>2021-10-29T16:36:18Z</time>
      </trkpt>
      <trkpt lat="42.58753" lon="2.57903">
        <ele>1012.52</ele>
        <time>2021-10-29T16:36:18Z</time>
      </trkpt>
      <trkpt lat="42.5874" lon="2.57911">
        <ele>1011.15</ele>
        <time>2021-10-29T16:36:18Z</time>
      </trkpt>
      <trkpt lat="42.58727" lon="2.57917">
        <ele>1010.11</ele>
        <time>2021-10-29T16:36:18Z</time>
      </trkpt>
      <trkpt lat="42.58719" lon="2.57923">
        <ele>1009.02</ele>
        <time>2021-10-29T16:36:18Z</time>
      </trkpt>
      <trkpt lat="42.58708" lon="2.57932">
        <ele>1007.52</ele>
        <time>2021-10-29T16:36:18Z</time>
      </trkpt>
      <trkpt lat="42.58698" lon="2.57938">
        <ele>1006.73</ele>
        <time>2021-10-29T16:36:18Z</time>
      </trkpt>
      <trkpt lat="42.58691" lon="2.57945">
        <ele>1005.54</ele>
        <time>2021-10-29T16:36:18Z</time>
      </trkpt>
      <trkpt lat="42.58683" lon="2.57955">
        <ele>1003.7</ele>
        <time>2021-10-29T16:36:18Z</time>
      </trkpt>
      <trkpt lat="42.58674" lon="2.57967">
        <ele>1001.39</ele>
        <time>2021-10-29T16:36:18Z</time>
      </trkpt>
      <trkpt lat="42.58652" lon="2.57991">
        <ele>995.95</ele>
        <time>2021-10-29T16:36:18Z</time>
      </trkpt>
      <trkpt lat="42.58645" lon="2.58">
        <ele>993.82</ele>
        <time>2021-10-29T16:36:18Z</time>
      </trkpt>
      <trkpt lat="42.58635" lon="2.58006">
        <ele>992.81</ele>
        <time>2021-10-29T16:36:18Z</time>
      </trkpt>
      <trkpt lat="42.5862" lon="2.58029">
        <ele>987.43</ele>
        <time>2021-10-29T16:36:18Z</time>
      </trkpt>
      <trkpt lat="42.58613" lon="2.5804">
        <ele>984.74</ele>
        <time>2021-10-29T16:36:18Z</time>
      </trkpt>
      <trkpt lat="42.58606" lon="2.58049">
        <ele>982.56</ele>
        <time>2021-10-29T16:36:18Z</time>
      </trkpt>
      <trkpt lat="42.58597" lon="2.58062">
        <ele>979.35</ele>
        <time>2021-10-29T16:36:18Z</time>
      </trkpt>
      <trkpt lat="42.58582" lon="2.5808">
        <ele>975.03</ele>
        <time>2021-10-29T16:36:18Z</time>
      </trkpt>
      <trkpt lat="42.58573" lon="2.58089">
        <ele>972.77</ele>
        <time>2021-10-29T16:36:18Z</time>
      </trkpt>
      <trkpt lat="42.5856" lon="2.58099">
        <ele>969.76</ele>
        <time>2021-10-29T16:36:18Z</time>
      </trkpt>
      <trkpt lat="42.58548" lon="2.58113">
        <ele>965.87</ele>
        <time>2021-10-29T16:36:18Z</time>
      </trkpt>
      <trkpt lat="42.58517" lon="2.58128">
        <ele>961.7</ele>
        <time>2021-10-29T16:36:18Z</time>
      </trkpt>
      <trkpt lat="42.58507" lon="2.58134">
        <ele>960.07</ele>
        <time>2021-10-29T16:36:18Z</time>
      </trkpt>
      <trkpt lat="42.58489" lon="2.58141">
        <ele>954.47</ele>
        <time>2021-10-29T16:36:18Z</time>
      </trkpt>
      <trkpt lat="42.58483" lon="2.5815">
        <ele>951.34</ele>
        <time>2021-10-29T16:36:18Z</time>
      </trkpt>
      <trkpt lat="42.5848" lon="2.58162">
        <ele>948.38</ele>
        <time>2021-10-29T16:36:18Z</time>
      </trkpt>
      <trkpt lat="42.58472" lon="2.5817">
        <ele>945.51</ele>
        <time>2021-10-29T16:36:18Z</time>
      </trkpt>
      <trkpt lat="42.58464" lon="2.58186">
        <ele>941.27</ele>
        <time>2021-10-29T16:36:18Z</time>
      </trkpt>
      <trkpt lat="42.58455" lon="2.58199">
        <ele>937.71</ele>
        <time>2021-10-29T16:36:18Z</time>
      </trkpt>
      <trkpt lat="42.58446" lon="2.58209">
        <ele>935.18</ele>
        <time>2021-10-29T16:36:18Z</time>
      </trkpt>
      <trkpt lat="42.58433" lon="2.58229">
        <ele>930.38</ele>
        <time>2021-10-29T16:36:18Z</time>
      </trkpt>
      <trkpt lat="42.5842" lon="2.58239">
        <ele>925.97</ele>
        <time>2021-10-29T16:36:18Z</time>
      </trkpt>
      <trkpt lat="42.58413" lon="2.58249">
        <ele>923.18</ele>
        <time>2021-10-29T16:36:18Z</time>
      </trkpt>
      <trkpt lat="42.5841" lon="2.58267">
        <ele>918.88</ele>
        <time>2021-10-29T16:36:18Z</time>
      </trkpt>
      <trkpt lat="42.58402" lon="2.5828">
        <ele>915.06</ele>
        <time>2021-10-29T16:36:18Z</time>
      </trkpt>
      <trkpt lat="42.58389" lon="2.58301">
        <ele>909.8</ele>
        <time>2021-10-29T16:36:18Z</time>
      </trkpt>
      <trkpt lat="42.5838" lon="2.58311">
        <ele>907.47</ele>
        <time>2021-10-29T16:36:18Z</time>
      </trkpt>
      <trkpt lat="42.58368" lon="2.58325">
        <ele>904.08</ele>
        <time>2021-10-29T16:36:18Z</time>
      </trkpt>
      <trkpt lat="42.58359" lon="2.58334">
        <ele>900.48</ele>
        <time>2021-10-29T16:36:18Z</time>
      </trkpt>
      <trkpt lat="42.58349" lon="2.58353">
        <ele>895.62</ele>
        <time>2021-10-29T16:36:18Z</time>
      </trkpt>
      <trkpt lat="42.5834" lon="2.58371">
        <ele>891.77</ele>
        <time>2021-10-29T16:36:18Z</time>
      </trkpt>
      <trkpt lat="42.58328" lon="2.58416">
        <ele>884.66</ele>
        <time>2021-10-29T16:36:18Z</time>
      </trkpt>
      <trkpt lat="42.58325" lon="2.58437">
        <ele>881.95</ele>
        <time>2021-10-29T16:36:18Z</time>
      </trkpt>
      <trkpt lat="42.58323" lon="2.58458">
        <ele>879.53</ele>
        <time>2021-10-29T16:36:18Z</time>
      </trkpt>
      <trkpt lat="42.58323" lon="2.58479">
        <ele>877.42</ele>
        <time>2021-10-29T16:36:18Z</time>
      </trkpt>
      <trkpt lat="42.58323" lon="2.58494">
        <ele>875.91</ele>
        <time>2021-10-29T16:36:18Z</time>
      </trkpt>
      <trkpt lat="42.58321" lon="2.58511">
        <ele>874.42</ele>
        <time>2021-10-29T16:36:18Z</time>
      </trkpt>
      <trkpt lat="42.58322" lon="2.58528">
        <ele>872.94</ele>
        <time>2021-10-29T16:36:18Z</time>
      </trkpt>
      <trkpt lat="42.58325" lon="2.58542">
        <ele>871.82</ele>
        <time>2021-10-29T16:36:18Z</time>
      </trkpt>
      <trkpt lat="42.58328" lon="2.58573">
        <ele>869.63</ele>
        <time>2021-10-29T16:36:18Z</time>
      </trkpt>
      <trkpt lat="42.58329" lon="2.58598">
        <ele>868.12</ele>
        <time>2021-10-29T16:36:18Z</time>
      </trkpt>
      <trkpt lat="42.5833" lon="2.58619">
        <ele>867.02</ele>
        <time>2021-10-29T16:36:18Z</time>
      </trkpt>
      <trkpt lat="42.58333" lon="2.58641">
        <ele>865.34</ele>
        <time>2021-10-29T16:36:18Z</time>
      </trkpt>
      <trkpt lat="42.58335" lon="2.58664">
        <ele>863.93</ele>
        <time>2021-10-29T16:36:18Z</time>
      </trkpt>
      <trkpt lat="42.58339" lon="2.58685">
        <ele>862.4</ele>
        <time>2021-10-29T16:36:18Z</time>
      </trkpt>
      <trkpt lat="42.58343" lon="2.58712">
        <ele>860.69</ele>
        <time>2021-10-29T16:36:18Z</time>
      </trkpt>
      <trkpt lat="42.58348" lon="2.58733">
        <ele>858.86</ele>
        <time>2021-10-29T16:36:18Z</time>
      </trkpt>
      <trkpt lat="42.58351" lon="2.58754">
        <ele>857.73</ele>
        <time>2021-10-29T16:36:18Z</time>
      </trkpt>
      <trkpt lat="42.58357" lon="2.58774">
        <ele>855.77</ele>
        <time>2021-10-29T16:36:18Z</time>
      </trkpt>
      <trkpt lat="42.58358" lon="2.588">
        <ele>855.06</ele>
        <time>2021-10-29T16:36:18Z</time>
      </trkpt>
      <trkpt lat="42.58358" lon="2.58826">
        <ele>854.24</ele>
        <time>2021-10-29T16:36:18Z</time>
      </trkpt>
      <trkpt lat="42.58355" lon="2.58874">
        <ele>853.23</ele>
        <time>2021-10-29T16:36:18Z</time>
      </trkpt>
      <trkpt lat="42.58357" lon="2.58887">
        <ele>851.89</ele>
        <time>2021-10-29T16:36:18Z</time>
      </trkpt>
      <trkpt lat="42.58362" lon="2.58905">
        <ele>849.52</ele>
        <time>2021-10-29T16:36:18Z</time>
      </trkpt>
      <trkpt lat="42.58362" lon="2.58925">
        <ele>848.29</ele>
        <time>2021-10-29T16:36:18Z</time>
      </trkpt>
      <trkpt lat="42.58362" lon="2.58949">
        <ele>846.43</ele>
        <time>2021-10-29T16:36:18Z</time>
      </trkpt>
      <trkpt lat="42.58361" lon="2.58973">
        <ele>844.56</ele>
        <time>2021-10-29T16:36:18Z</time>
      </trkpt>
      <trkpt lat="42.58357" lon="2.58996">
        <ele>843.48</ele>
        <time>2021-10-29T16:36:18Z</time>
      </trkpt>
      <trkpt lat="42.58352" lon="2.59019">
        <ele>842.76</ele>
        <time>2021-10-29T16:36:18Z</time>
      </trkpt>
      <trkpt lat="42.58348" lon="2.59042">
        <ele>841.78</ele>
        <time>2021-10-29T16:36:18Z</time>
      </trkpt>
      <trkpt lat="42.58348" lon="2.59063">
        <ele>840.06</ele>
        <time>2021-10-29T16:36:18Z</time>
      </trkpt>
      <trkpt lat="42.5835" lon="2.59087">
        <ele>837.47</ele>
        <time>2021-10-29T16:36:18Z</time>
      </trkpt>
      <trkpt lat="42.5835" lon="2.5911">
        <ele>835.27</ele>
        <time>2021-10-29T16:36:18Z</time>
      </trkpt>
      <trkpt lat="42.58349" lon="2.59135">
        <ele>833.05</ele>
        <time>2021-10-29T16:36:18Z</time>
      </trkpt>
      <trkpt lat="42.58346" lon="2.59159">
        <ele>830.98</ele>
        <time>2021-10-29T16:36:18Z</time>
      </trkpt>
      <trkpt lat="42.58341" lon="2.59186">
        <ele>828.89</ele>
        <time>2021-10-29T16:36:18Z</time>
      </trkpt>
      <trkpt lat="42.58338" lon="2.59216">
        <ele>826.42</ele>
        <time>2021-10-29T16:36:18Z</time>
      </trkpt>
      <trkpt lat="42.58341" lon="2.59236">
        <ele>824.4</ele>
        <time>2021-10-29T16:36:18Z</time>
      </trkpt>
      <trkpt lat="42.58348" lon="2.5926">
        <ele>821.32</ele>
        <time>2021-10-29T16:36:18Z</time>
      </trkpt>
      <trkpt lat="42.58355" lon="2.59284">
        <ele>818.58</ele>
        <time>2021-10-29T16:36:18Z</time>
      </trkpt>
      <trkpt lat="42.58365" lon="2.59306">
        <ele>816.34</ele>
        <time>2021-10-29T16:36:18Z</time>
      </trkpt>
      <trkpt lat="42.58382" lon="2.59331">
        <ele>812.72</ele>
        <time>2021-10-29T16:36:18Z</time>
      </trkpt>
      <trkpt lat="42.58394" lon="2.59348">
        <ele>810.32</ele>
        <time>2021-10-29T16:36:18Z</time>
      </trkpt>
      <trkpt lat="42.58407" lon="2.5936">
        <ele>807.82</ele>
        <time>2021-10-29T16:36:18Z</time>
      </trkpt>
      <trkpt lat="42.5842" lon="2.59375">
        <ele>805.52</ele>
        <time>2021-10-29T16:36:18Z</time>
      </trkpt>
      <trkpt lat="42.58429" lon="2.59396">
        <ele>804.16</ele>
        <time>2021-10-29T16:36:18Z</time>
      </trkpt>
      <trkpt lat="42.58445" lon="2.59415">
        <ele>801.57</ele>
        <time>2021-10-29T16:36:18Z</time>
      </trkpt>
      <trkpt lat="42.58457" lon="2.59433">
        <ele>797.89</ele>
        <time>2021-10-29T16:36:18Z</time>
      </trkpt>
      <trkpt lat="42.58465" lon="2.59457">
        <ele>794.68</ele>
        <time>2021-10-29T16:36:18Z</time>
      </trkpt>
      <trkpt lat="42.58474" lon="2.59479">
        <ele>791.49</ele>
        <time>2021-10-29T16:36:18Z</time>
      </trkpt>
      <trkpt lat="42.58486" lon="2.59495">
        <ele>788.15</ele>
        <time>2021-10-29T16:36:18Z</time>
      </trkpt>
      <trkpt lat="42.58495" lon="2.59515">
        <ele>785.23</ele>
        <time>2021-10-29T16:36:18Z</time>
      </trkpt>
      <trkpt lat="42.585" lon="2.59539">
        <ele>782.88</ele>
        <time>2021-10-29T16:36:18Z</time>
      </trkpt>
      <trkpt lat="42.58518" lon="2.59559">
        <ele>778.19</ele>
        <time>2021-10-29T16:36:18Z</time>
      </trkpt>
      <trkpt lat="42.58528" lon="2.59573">
        <ele>775.03</ele>
        <time>2021-10-29T16:36:18Z</time>
      </trkpt>
      <trkpt lat="42.58532" lon="2.5959">
        <ele>772.76</ele>
        <time>2021-10-29T16:36:18Z</time>
      </trkpt>
      <trkpt lat="42.58545" lon="2.59606">
        <ele>769.13</ele>
        <time>2021-10-29T16:36:18Z</time>
      </trkpt>
      <trkpt lat="42.58556" lon="2.59627">
        <ele>765.35</ele>
        <time>2021-10-29T16:36:18Z</time>
      </trkpt>
      <trkpt lat="42.58569" lon="2.5963">
        <ele>762.93</ele>
        <time>2021-10-29T16:36:18Z</time>
      </trkpt>
      <trkpt lat="42.58585" lon="2.59624">
        <ele>760.97</ele>
        <time>2021-10-29T16:36:18Z</time>
      </trkpt>
      <trkpt lat="42.58594" lon="2.59618">
        <ele>759.92</ele>
        <time>2021-10-29T16:36:18Z</time>
      </trkpt>
      <trkpt lat="42.58597" lon="2.59634">
        <ele>757.92</ele>
        <time>2021-10-29T16:36:18Z</time>
      </trkpt>
      <trkpt lat="42.58598" lon="2.59681">
        <ele>753.18</ele>
        <time>2021-10-29T16:36:18Z</time>
      </trkpt>
      <trkpt lat="42.58592" lon="2.59704">
        <ele>751.41</ele>
        <time>2021-10-29T16:36:18Z</time>
      </trkpt>
      <trkpt lat="42.58589" lon="2.59729">
        <ele>748.91</ele>
        <time>2021-10-29T16:36:18Z</time>
      </trkpt>
      <trkpt lat="42.58592" lon="2.59753">
        <ele>745.88</ele>
        <time>2021-10-29T16:36:18Z</time>
      </trkpt>
      <trkpt lat="42.58593" lon="2.59781">
        <ele>742.11</ele>
        <time>2021-10-29T16:36:18Z</time>
      </trkpt>
      <trkpt lat="42.58604" lon="2.59789">
        <ele>739.84</ele>
        <time>2021-10-29T16:36:18Z</time>
      </trkpt>
      <trkpt lat="42.58619" lon="2.59796">
        <ele>737.23</ele>
        <time>2021-10-29T16:36:18Z</time>
      </trkpt>
      <trkpt lat="42.58628" lon="2.59807">
        <ele>734.67</ele>
        <time>2021-10-29T16:36:18Z</time>
      </trkpt>
      <trkpt lat="42.58622" lon="2.59824">
        <ele>732.95</ele>
        <time>2021-10-29T16:36:18Z</time>
      </trkpt>
      <trkpt lat="42.58616" lon="2.5984">
        <ele>731.56</ele>
        <time>2021-10-29T16:36:18Z</time>
      </trkpt>
      <trkpt lat="42.58608" lon="2.5986">
        <ele>729.81</ele>
        <time>2021-10-29T16:36:18Z</time>
      </trkpt>
      <trkpt lat="42.58604" lon="2.59882">
        <ele>727.28</ele>
        <time>2021-10-29T16:36:18Z</time>
      </trkpt>
      <trkpt lat="42.586" lon="2.599">
        <ele>725.16</ele>
        <time>2021-10-29T16:36:18Z</time>
      </trkpt>
      <trkpt lat="42.58607" lon="2.59909">
        <ele>723.31</ele>
        <time>2021-10-29T16:36:18Z</time>
      </trkpt>
      <trkpt lat="42.58622" lon="2.59915">
        <ele>721.46</ele>
        <time>2021-10-29T16:36:18Z</time>
      </trkpt>
      <trkpt lat="42.58631" lon="2.59929">
        <ele>719.24</ele>
        <time>2021-10-29T16:36:18Z</time>
      </trkpt>
      <trkpt lat="42.58631" lon="2.59947">
        <ele>717.16</ele>
        <time>2021-10-29T16:36:18Z</time>
      </trkpt>
      <trkpt lat="42.58638" lon="2.59964">
        <ele>715.09</ele>
        <time>2021-10-29T16:36:18Z</time>
      </trkpt>
      <trkpt lat="42.58627" lon="2.59967">
        <ele>714.77</ele>
        <time>2021-10-29T16:36:18Z</time>
      </trkpt>
      <trkpt lat="42.58609" lon="2.59975">
        <ele>713.58</ele>
        <time>2021-10-29T16:36:18Z</time>
      </trkpt>
      <trkpt lat="42.5862" lon="2.59968">
        <ele>714.68</ele>
        <time>2021-10-29T16:36:18Z</time>
      </trkpt>
      <trkpt lat="42.58633" lon="2.59964">
        <ele>715.16</ele>
        <time>2021-10-29T16:36:18Z</time>
      </trkpt>
      <trkpt lat="42.58643" lon="2.59968">
        <ele>714.43</ele>
        <time>2021-10-29T16:36:18Z</time>
      </trkpt>
      <trkpt lat="42.58651" lon="2.59981">
        <ele>711.57</ele>
        <time>2021-10-29T16:36:18Z</time>
      </trkpt>
      <trkpt lat="42.58661" lon="2.59995">
        <ele>708.44</ele>
        <time>2021-10-29T16:36:18Z</time>
      </trkpt>
      <trkpt lat="42.58675" lon="2.60011">
        <ele>705.05</ele>
        <time>2021-10-29T16:36:18Z</time>
      </trkpt>
      <trkpt lat="42.58684" lon="2.60015">
        <ele>703.77</ele>
        <time>2021-10-29T16:36:18Z</time>
      </trkpt>
      <trkpt lat="42.58692" lon="2.60027">
        <ele>701.99</ele>
        <time>2021-10-29T16:36:18Z</time>
      </trkpt>
      <trkpt lat="42.587" lon="2.60037">
        <ele>700.42</ele>
        <time>2021-10-29T16:36:18Z</time>
      </trkpt>
      <trkpt lat="42.58714" lon="2.60041">
        <ele>698.93</ele>
        <time>2021-10-29T16:36:18Z</time>
      </trkpt>
      <trkpt lat="42.58726" lon="2.60049">
        <ele>696.06</ele>
        <time>2021-10-29T16:36:18Z</time>
      </trkpt>
      <trkpt lat="42.58746" lon="2.6007">
        <ele>691.22</ele>
        <time>2021-10-29T16:36:18Z</time>
      </trkpt>
      <trkpt lat="42.58761" lon="2.60086">
        <ele>688.16</ele>
        <time>2021-10-29T16:36:18Z</time>
      </trkpt>
      <trkpt lat="42.58773" lon="2.60094">
        <ele>686.26</ele>
        <time>2021-10-29T16:36:18Z</time>
      </trkpt>
      <trkpt lat="42.58785" lon="2.601">
        <ele>684.26</ele>
        <time>2021-10-29T16:36:18Z</time>
      </trkpt>
      <trkpt lat="42.58795" lon="2.60107">
        <ele>681.47</ele>
        <time>2021-10-29T16:36:18Z</time>
      </trkpt>
      <trkpt lat="42.58806" lon="2.60119">
        <ele>678.13</ele>
        <time>2021-10-29T16:36:18Z</time>
      </trkpt>
      <trkpt lat="42.58815" lon="2.60133">
        <ele>675.33</ele>
        <time>2021-10-29T16:36:18Z</time>
      </trkpt>
      <trkpt lat="42.58826" lon="2.60144">
        <ele>672.71</ele>
        <time>2021-10-29T16:36:18Z</time>
      </trkpt>
      <trkpt lat="42.58837" lon="2.60153">
        <ele>670.49</ele>
        <time>2021-10-29T16:36:18Z</time>
      </trkpt>
      <trkpt lat="42.58848" lon="2.6016">
        <ele>668.59</ele>
        <time>2021-10-29T16:36:18Z</time>
      </trkpt>
      <trkpt lat="42.5886" lon="2.60163">
        <ele>665.53</ele>
        <time>2021-10-29T16:36:18Z</time>
      </trkpt>
      <trkpt lat="42.58874" lon="2.60172">
        <ele>661.55</ele>
        <time>2021-10-29T16:36:18Z</time>
      </trkpt>
      <trkpt lat="42.58896" lon="2.60179">
        <ele>655.49</ele>
        <time>2021-10-29T16:36:18Z</time>
      </trkpt>
      <trkpt lat="42.58907" lon="2.60184">
        <ele>652.6</ele>
        <time>2021-10-29T16:36:18Z</time>
      </trkpt>
      <trkpt lat="42.58911" lon="2.60202">
        <ele>651.15</ele>
        <time>2021-10-29T16:36:18Z</time>
      </trkpt>
      <trkpt lat="42.58909" lon="2.60225">
        <ele>650.85</ele>
        <time>2021-10-29T16:36:18Z</time>
      </trkpt>
      <trkpt lat="42.58923" lon="2.60238">
        <ele>647.65</ele>
        <time>2021-10-29T16:36:18Z</time>
      </trkpt>
      <trkpt lat="42.58931" lon="2.6025">
        <ele>643.83</ele>
        <time>2021-10-29T16:36:18Z</time>
      </trkpt>
      <trkpt lat="42.58933" lon="2.60262">
        <ele>641.94</ele>
        <time>2021-10-29T16:36:18Z</time>
      </trkpt>
      <trkpt lat="42.58937" lon="2.60277">
        <ele>639.32</ele>
        <time>2021-10-29T16:36:18Z</time>
      </trkpt>
      <trkpt lat="42.58943" lon="2.60291">
        <ele>636.53</ele>
        <time>2021-10-29T16:36:18Z</time>
      </trkpt>
      <trkpt lat="42.58951" lon="2.60311">
        <ele>632.98</ele>
        <time>2021-10-29T16:36:18Z</time>
      </trkpt>
      <trkpt lat="42.58953" lon="2.60324">
        <ele>631.07</ele>
        <time>2021-10-29T16:36:18Z</time>
      </trkpt>
      <trkpt lat="42.5896" lon="2.60326">
        <ele>629.63</ele>
        <time>2021-10-29T16:36:18Z</time>
      </trkpt>
      <trkpt lat="42.58978" lon="2.60299">
        <ele>628.18</ele>
        <time>2021-10-29T16:36:18Z</time>
      </trkpt>
      <trkpt lat="42.58987" lon="2.60283">
        <ele>626.46</ele>
        <time>2021-10-29T16:36:18Z</time>
      </trkpt>
      <trkpt lat="42.58998" lon="2.60264">
        <ele>623.43</ele>
        <time>2021-10-29T16:36:18Z</time>
      </trkpt>
      <trkpt lat="42.59005" lon="2.60248">
        <ele>621.19</ele>
        <time>2021-10-29T16:36:18Z</time>
      </trkpt>
      <trkpt lat="42.59012" lon="2.60228">
        <ele>618.24</ele>
        <time>2021-10-29T16:36:18Z</time>
      </trkpt>
      <trkpt lat="42.59018" lon="2.60206">
        <ele>614.96</ele>
        <time>2021-10-29T16:36:18Z</time>
      </trkpt>
      <trkpt lat="42.59021" lon="2.60182">
        <ele>612.49</ele>
        <time>2021-10-29T16:36:18Z</time>
      </trkpt>
      <trkpt lat="42.59023" lon="2.60158">
        <ele>610.76</ele>
        <time>2021-10-29T16:36:18Z</time>
      </trkpt>
      <trkpt lat="42.59028" lon="2.60131">
        <ele>608.35</ele>
        <time>2021-10-29T16:36:18Z</time>
      </trkpt>
      <trkpt lat="42.59031" lon="2.60113">
        <ele>606.96</ele>
        <time>2021-10-29T16:36:18Z</time>
      </trkpt>
      <trkpt lat="42.59029" lon="2.60093">
        <ele>608.51</ele>
        <time>2021-10-29T16:36:18Z</time>
      </trkpt>
      <trkpt lat="42.59024" lon="2.60075">
        <ele>612.36</ele>
        <time>2021-10-29T16:36:18Z</time>
      </trkpt>
      <trkpt lat="42.5903" lon="2.60064">
        <ele>611.86</ele>
        <time>2021-10-29T16:36:18Z</time>
      </trkpt>
      <trkpt lat="42.59038" lon="2.60055">
        <ele>610.68</ele>
        <time>2021-10-29T16:36:18Z</time>
      </trkpt>
      <trkpt lat="42.59049" lon="2.60038">
        <ele>610.05</ele>
        <time>2021-10-29T16:36:18Z</time>
      </trkpt>
      <trkpt lat="42.59047" lon="2.60023">
        <ele>613.72</ele>
        <time>2021-10-29T16:36:18Z</time>
      </trkpt>
      <trkpt lat="42.59052" lon="2.60011">
        <ele>615.38</ele>
        <time>2021-10-29T16:36:18Z</time>
      </trkpt>
      <trkpt lat="42.59054" lon="2.59994">
        <ele>619.07</ele>
        <time>2021-10-29T16:36:18Z</time>
      </trkpt>
      <trkpt lat="42.5906" lon="2.59992">
        <ele>618.27</ele>
        <time>2021-10-29T16:36:18Z</time>
      </trkpt>
      <trkpt lat="42.59075" lon="2.59997">
        <ele>613.97</ele>
        <time>2021-10-29T16:36:18Z</time>
      </trkpt>
      <trkpt lat="42.5909" lon="2.59998">
        <ele>610.67</ele>
        <time>2021-10-29T16:36:18Z</time>
      </trkpt>
      <trkpt lat="42.591" lon="2.59999">
        <ele>608.38</ele>
        <time>2021-10-29T16:36:18Z</time>
      </trkpt>
      <trkpt lat="42.59116" lon="2.59998">
        <ele>605.36</ele>
        <time>2021-10-29T16:36:18Z</time>
      </trkpt>
      <trkpt lat="42.59131" lon="2.59996">
        <ele>602.33</ele>
        <time>2021-10-29T16:36:18Z</time>
      </trkpt>
      <trkpt lat="42.59145" lon="2.59988">
        <ele>600.28</ele>
        <time>2021-10-29T16:36:18Z</time>
      </trkpt>
      <trkpt lat="42.59157" lon="2.59979">
        <ele>598.83</ele>
        <time>2021-10-29T16:36:18Z</time>
      </trkpt>
      <trkpt lat="42.59171" lon="2.59964">
        <ele>597.85</ele>
        <time>2021-10-29T16:36:18Z</time>
      </trkpt>
      <trkpt lat="42.59179" lon="2.59954">
        <ele>595.92</ele>
        <time>2021-10-29T16:36:18Z</time>
      </trkpt>
      <trkpt lat="42.59187" lon="2.59933">
        <ele>594.16</ele>
        <time>2021-10-29T16:36:18Z</time>
      </trkpt>
      <trkpt lat="42.59189" lon="2.59916">
        <ele>594.06</ele>
        <time>2021-10-29T16:36:18Z</time>
      </trkpt>
      <trkpt lat="42.59191" lon="2.59898">
        <ele>593.9</ele>
        <time>2021-10-29T16:36:18Z</time>
      </trkpt>
      <trkpt lat="42.59196" lon="2.59865">
        <ele>591.81</ele>
        <time>2021-10-29T16:36:18Z</time>
      </trkpt>
      <trkpt lat="42.59199" lon="2.59848">
        <ele>590.46</ele>
        <time>2021-10-29T16:36:18Z</time>
      </trkpt>
      <trkpt lat="42.59206" lon="2.59828">
        <ele>587.32</ele>
        <time>2021-10-29T16:36:18Z</time>
      </trkpt>
      <trkpt lat="42.59215" lon="2.59812">
        <ele>584.11</ele>
        <time>2021-10-29T16:36:18Z</time>
      </trkpt>
      <trkpt lat="42.59223" lon="2.59794">
        <ele>581.55</ele>
        <time>2021-10-29T16:36:18Z</time>
      </trkpt>
      <trkpt lat="42.59233" lon="2.59775">
        <ele>578.14</ele>
        <time>2021-10-29T16:36:18Z</time>
      </trkpt>
      <trkpt lat="42.59236" lon="2.5976">
        <ele>577.66</ele>
        <time>2021-10-29T16:36:18Z</time>
      </trkpt>
      <trkpt lat="42.59229" lon="2.5974">
        <ele>580.82</ele>
        <time>2021-10-29T16:36:18Z</time>
      </trkpt>
      <trkpt lat="42.5923" lon="2.59708">
        <ele>580.19</ele>
        <time>2021-10-29T16:36:18Z</time>
      </trkpt>
      <trkpt lat="42.59228" lon="2.59692">
        <ele>580.92</ele>
        <time>2021-10-29T16:36:18Z</time>
      </trkpt>
      <trkpt lat="42.59224" lon="2.5967">
        <ele>582.66</ele>
        <time>2021-10-29T16:36:18Z</time>
      </trkpt>
      <trkpt lat="42.59224" lon="2.59655">
        <ele>582.76</ele>
        <time>2021-10-29T16:36:18Z</time>
      </trkpt>
      <trkpt lat="42.59222" lon="2.59634">
        <ele>583.48</ele>
        <time>2021-10-29T16:36:18Z</time>
      </trkpt>
      <trkpt lat="42.59222" lon="2.59621">
        <ele>583.51</ele>
        <time>2021-10-29T16:36:18Z</time>
      </trkpt>
      <trkpt lat="42.59225" lon="2.59601">
        <ele>583.02</ele>
        <time>2021-10-29T16:36:18Z</time>
      </trkpt>
      <trkpt lat="42.59224" lon="2.5958">
        <ele>583.52</ele>
        <time>2021-10-29T16:36:18Z</time>
      </trkpt>
      <trkpt lat="42.59222" lon="2.59562">
        <ele>584</ele>
        <time>2021-10-29T16:36:18Z</time>
      </trkpt>
      <trkpt lat="42.59219" lon="2.59544">
        <ele>584.87</ele>
        <time>2021-10-29T16:36:18Z</time>
      </trkpt>
      <trkpt lat="42.5922" lon="2.59528">
        <ele>585.78</ele>
        <time>2021-10-29T16:36:18Z</time>
      </trkpt>
      <trkpt lat="42.59218" lon="2.59515">
        <ele>586.62</ele>
        <time>2021-10-29T16:36:18Z</time>
      </trkpt>
      <trkpt lat="42.59218" lon="2.59504">
        <ele>587.25</ele>
        <time>2021-10-29T16:36:18Z</time>
      </trkpt>
      <trkpt lat="42.59217" lon="2.59493">
        <ele>587.84</ele>
        <time>2021-10-29T16:36:18Z</time>
      </trkpt>
      <trkpt lat="42.59208" lon="2.59489">
        <ele>587.66</ele>
        <time>2021-10-29T16:36:18Z</time>
      </trkpt>
      <trkpt lat="42.592" lon="2.59482">
        <ele>587.62</ele>
        <time>2021-10-29T16:36:18Z</time>
      </trkpt>
      <trkpt lat="42.59194" lon="2.5947">
        <ele>589.19</ele>
        <time>2021-10-29T16:36:18Z</time>
      </trkpt>
      <trkpt lat="42.59189" lon="2.59458">
        <ele>591.73</ele>
        <time>2021-10-29T16:36:18Z</time>
      </trkpt>
      <trkpt lat="42.59199" lon="2.59458">
        <ele>591.74</ele>
        <time>2021-10-29T16:36:18Z</time>
      </trkpt>
      <trkpt lat="42.59215" lon="2.59466">
        <ele>591.99</ele>
        <time>2021-10-29T16:36:18Z</time>
      </trkpt>
      <trkpt lat="42.59229" lon="2.59482">
        <ele>589.41</ele>
        <time>2021-10-29T16:36:18Z</time>
      </trkpt>
      <trkpt lat="42.59242" lon="2.59498">
        <ele>588.17</ele>
        <time>2021-10-29T16:36:18Z</time>
      </trkpt>
      <trkpt lat="42.59249" lon="2.59507">
        <ele>587.17</ele>
        <time>2021-10-29T16:36:18Z</time>
      </trkpt>
      <trkpt lat="42.59256" lon="2.59521">
        <ele>585.15</ele>
        <time>2021-10-29T16:36:18Z</time>
      </trkpt>
      <trkpt lat="42.59265" lon="2.5952">
        <ele>586.19</ele>
        <time>2021-10-29T16:36:18Z</time>
      </trkpt>
      <trkpt lat="42.59273" lon="2.59516">
        <ele>589.74</ele>
        <time>2021-10-29T16:36:18Z</time>
      </trkpt>
      <trkpt lat="42.59282" lon="2.59512">
        <ele>593.66</ele>
        <time>2021-10-29T16:36:18Z</time>
      </trkpt>
      <trkpt lat="42.59289" lon="2.5952">
        <ele>594.93</ele>
        <time>2021-10-29T16:36:18Z</time>
      </trkpt>
      <trkpt lat="42.59289" lon="2.59533">
        <ele>592.84</ele>
        <time>2021-10-29T16:36:18Z</time>
      </trkpt>
      <trkpt lat="42.59287" lon="2.59545">
        <ele>590.19</ele>
        <time>2021-10-29T16:36:18Z</time>
      </trkpt>
      <trkpt lat="42.59288" lon="2.59568">
        <ele>587.1</ele>
        <time>2021-10-29T16:36:18Z</time>
      </trkpt>
      <trkpt lat="42.59293" lon="2.59581">
        <ele>586.78</ele>
        <time>2021-10-29T16:36:18Z</time>
      </trkpt>
      <trkpt lat="42.59301" lon="2.59584">
        <ele>588.79</ele>
        <time>2021-10-29T16:36:18Z</time>
      </trkpt>
      <trkpt lat="42.59312" lon="2.5959">
        <ele>591.08</ele>
        <time>2021-10-29T16:36:18Z</time>
      </trkpt>
      <trkpt lat="42.59323" lon="2.5958">
        <ele>596.43</ele>
        <time>2021-10-29T16:36:18Z</time>
      </trkpt>
      <trkpt lat="42.59329" lon="2.59572">
        <ele>600.05</ele>
        <time>2021-10-29T16:36:18Z</time>
      </trkpt>
      <trkpt lat="42.59338" lon="2.59582">
        <ele>601.44</ele>
        <time>2021-10-29T16:36:18Z</time>
      </trkpt>
      <trkpt lat="42.5934" lon="2.59568">
        <ele>605.24</ele>
        <time>2021-10-29T16:36:18Z</time>
      </trkpt>
      <trkpt lat="42.59346" lon="2.59562">
        <ele>608.91</ele>
        <time>2021-10-29T16:36:18Z</time>
      </trkpt>
      <trkpt lat="42.59353" lon="2.59572">
        <ele>609.66</ele>
        <time>2021-10-29T16:36:18Z</time>
      </trkpt>
      <trkpt lat="42.59364" lon="2.59582">
        <ele>612.16</ele>
        <time>2021-10-29T16:36:18Z</time>
      </trkpt>
      <trkpt lat="42.59374" lon="2.59596">
        <ele>613.61</ele>
        <time>2021-10-29T16:36:18Z</time>
      </trkpt>
      <trkpt lat="42.59383" lon="2.59607">
        <ele>615.36</ele>
        <time>2021-10-29T16:36:18Z</time>
      </trkpt>
      <trkpt lat="42.59389" lon="2.59616">
        <ele>616.3</ele>
        <time>2021-10-29T16:36:18Z</time>
      </trkpt>
      <trkpt lat="42.59396" lon="2.59625">
        <ele>617.98</ele>
        <time>2021-10-29T16:36:18Z</time>
      </trkpt>
      <trkpt lat="42.59408" lon="2.59641">
        <ele>621.17</ele>
        <time>2021-10-29T16:36:18Z</time>
      </trkpt>
      <trkpt lat="42.5941" lon="2.59654">
        <ele>620.51</ele>
        <time>2021-10-29T16:36:18Z</time>
      </trkpt>
      <trkpt lat="42.59412" lon="2.59668">
        <ele>619.74</ele>
        <time>2021-10-29T16:36:18Z</time>
      </trkpt>
      <trkpt lat="42.59417" lon="2.59688">
        <ele>619.58</ele>
        <time>2021-10-29T16:36:18Z</time>
      </trkpt>
      <trkpt lat="42.59419" lon="2.59709">
        <ele>618.1</ele>
        <time>2021-10-29T16:36:18Z</time>
      </trkpt>
      <trkpt lat="42.59423" lon="2.59721">
        <ele>618.42</ele>
        <time>2021-10-29T16:36:18Z</time>
      </trkpt>
      <trkpt lat="42.5943" lon="2.59725">
        <ele>620.82</ele>
        <time>2021-10-29T16:36:18Z</time>
      </trkpt>
      <trkpt lat="42.59439" lon="2.59712">
        <ele>626.03</ele>
        <time>2021-10-29T16:36:18Z</time>
      </trkpt>
      <trkpt lat="42.59449" lon="2.59697">
        <ele>632</ele>
        <time>2021-10-29T16:36:18Z</time>
      </trkpt>
      <trkpt lat="42.59456" lon="2.59685">
        <ele>636.35</ele>
        <time>2021-10-29T16:36:18Z</time>
      </trkpt>
      <trkpt lat="42.59462" lon="2.59676">
        <ele>639.81</ele>
        <time>2021-10-29T16:36:18Z</time>
      </trkpt>
      <trkpt lat="42.59463" lon="2.5969">
        <ele>638.77</ele>
        <time>2021-10-29T16:36:18Z</time>
      </trkpt>
      <trkpt lat="42.59465" lon="2.59712">
        <ele>636.76</ele>
        <time>2021-10-29T16:36:18Z</time>
      </trkpt>
      <trkpt lat="42.59471" lon="2.59724">
        <ele>637.2</ele>
        <time>2021-10-29T16:36:18Z</time>
      </trkpt>
      <trkpt lat="42.59483" lon="2.59735">
        <ele>638.78</ele>
        <time>2021-10-29T16:36:18Z</time>
      </trkpt>
      <trkpt lat="42.59489" lon="2.59744">
        <ele>639.08</ele>
        <time>2021-10-29T16:36:18Z</time>
      </trkpt>
      <trkpt lat="42.59506" lon="2.59751">
        <ele>642.36</ele>
        <time>2021-10-29T16:36:18Z</time>
      </trkpt>
      <trkpt lat="42.59526" lon="2.59759">
        <ele>646.19</ele>
        <time>2021-10-29T16:36:18Z</time>
      </trkpt>
      <trkpt lat="42.5954" lon="2.59764">
        <ele>648.34</ele>
        <time>2021-10-29T16:36:18Z</time>
      </trkpt>
      <trkpt lat="42.59556" lon="2.59768">
        <ele>648.91</ele>
        <time>2021-10-29T16:36:18Z</time>
      </trkpt>
      <trkpt lat="42.5957" lon="2.59774">
        <ele>649.28</ele>
        <time>2021-10-29T16:36:18Z</time>
      </trkpt>
      <trkpt lat="42.59584" lon="2.59791">
        <ele>648.93</ele>
        <time>2021-10-29T16:36:18Z</time>
      </trkpt>
      <trkpt lat="42.59597" lon="2.59803">
        <ele>649.41</ele>
        <time>2021-10-29T16:36:18Z</time>
      </trkpt>
      <trkpt lat="42.59606" lon="2.59804">
        <ele>650.25</ele>
        <time>2021-10-29T16:36:18Z</time>
      </trkpt>
      <trkpt lat="42.59607" lon="2.59805">
        <ele>650.08</ele>
        <time>2021-10-29T16:36:18Z</time>
      </trkpt>
      <trkpt lat="42.59592" lon="2.59795">
        <ele>649.43</ele>
        <time>2021-10-29T16:36:18Z</time>
      </trkpt>
      <trkpt lat="42.59584" lon="2.5979">
        <ele>649.02</ele>
        <time>2021-10-29T16:36:18Z</time>
      </trkpt>
      <trkpt lat="42.59591" lon="2.59794">
        <ele>649.4</ele>
        <time>2021-10-29T16:36:18Z</time>
      </trkpt>
      <trkpt lat="42.59607" lon="2.59804">
        <ele>650.14</ele>
        <time>2021-10-29T16:36:18Z</time>
      </trkpt>
      <trkpt lat="42.59616" lon="2.59809">
        <ele>648.87</ele>
        <time>2021-10-29T16:36:18Z</time>
      </trkpt>
      <trkpt lat="42.59626" lon="2.59829">
        <ele>647.11</ele>
        <time>2021-10-29T16:36:18Z</time>
      </trkpt>
      <trkpt lat="42.59639" lon="2.59848">
        <ele>645.73</ele>
        <time>2021-10-29T16:36:18Z</time>
      </trkpt>
      <trkpt lat="42.59649" lon="2.59859">
        <ele>645.23</ele>
        <time>2021-10-29T16:36:18Z</time>
      </trkpt>
      <trkpt lat="42.59635" lon="2.59845">
        <ele>646</ele>
        <time>2021-10-29T16:36:18Z</time>
      </trkpt>
      <trkpt lat="42.59626" lon="2.59834">
        <ele>646.92</ele>
        <time>2021-10-29T16:36:18Z</time>
      </trkpt>
      <trkpt lat="42.59616" lon="2.59818">
        <ele>648.46</ele>
        <time>2021-10-29T16:36:18Z</time>
      </trkpt>
      <trkpt lat="42.59614" lon="2.59803">
        <ele>649.37</ele>
        <time>2021-10-29T16:36:18Z</time>
      </trkpt>
      <trkpt lat="42.5962" lon="2.59793">
        <ele>649.06</ele>
        <time>2021-10-29T16:36:18Z</time>
      </trkpt>
      <trkpt lat="42.59622" lon="2.59775">
        <ele>649.47</ele>
        <time>2021-10-29T16:36:18Z</time>
      </trkpt>
      <trkpt lat="42.59622" lon="2.59757">
        <ele>650.26</ele>
        <time>2021-10-29T16:36:18Z</time>
      </trkpt>
      <trkpt lat="42.59626" lon="2.59743">
        <ele>651.78</ele>
        <time>2021-10-29T16:36:18Z</time>
      </trkpt>
      <trkpt lat="42.59631" lon="2.59725">
        <ele>653.87</ele>
        <time>2021-10-29T16:36:18Z</time>
      </trkpt>
      <trkpt lat="42.59632" lon="2.59713">
        <ele>655.67</ele>
        <time>2021-10-29T16:36:18Z</time>
      </trkpt>
      <trkpt lat="42.59661" lon="2.59693">
        <ele>655.05</ele>
        <time>2021-10-29T16:36:18Z</time>
      </trkpt>
      <trkpt lat="42.59699" lon="2.59676">
        <ele>652.83</ele>
        <time>2021-10-29T16:36:18Z</time>
      </trkpt>
      <trkpt lat="42.5971" lon="2.59671">
        <ele>652.06</ele>
        <time>2021-10-29T16:36:18Z</time>
      </trkpt>
      <trkpt lat="42.59715" lon="2.5966">
        <ele>652.74</ele>
        <time>2021-10-29T16:36:18Z</time>
      </trkpt>
      <trkpt lat="42.59723" lon="2.5964">
        <ele>653.95</ele>
        <time>2021-10-29T16:36:18Z</time>
      </trkpt>
      <trkpt lat="42.59725" lon="2.59621">
        <ele>655.8</ele>
        <time>2021-10-29T16:36:18Z</time>
      </trkpt>
      <trkpt lat="42.59727" lon="2.59606">
        <ele>656.47</ele>
        <time>2021-10-29T16:36:18Z</time>
      </trkpt>
      <trkpt lat="42.59732" lon="2.59595">
        <ele>656.33</ele>
        <time>2021-10-29T16:36:18Z</time>
      </trkpt>
      <trkpt lat="42.59747" lon="2.59573">
        <ele>654.63</ele>
        <time>2021-10-29T16:36:18Z</time>
      </trkpt>
      <trkpt lat="42.59771" lon="2.59546">
        <ele>649.01</ele>
        <time>2021-10-29T16:36:18Z</time>
      </trkpt>
      <trkpt lat="42.59785" lon="2.59528">
        <ele>645.44</ele>
        <time>2021-10-29T16:36:18Z</time>
      </trkpt>
      <trkpt lat="42.59791" lon="2.59509">
        <ele>644.13</ele>
        <time>2021-10-29T16:36:18Z</time>
      </trkpt>
      <trkpt lat="42.59798" lon="2.59495">
        <ele>642.22</ele>
        <time>2021-10-29T16:36:18Z</time>
      </trkpt>
      <trkpt lat="42.59804" lon="2.59478">
        <ele>640.76</ele>
        <time>2021-10-29T16:36:18Z</time>
      </trkpt>
      <trkpt lat="42.59807" lon="2.59465">
        <ele>640.49</ele>
        <time>2021-10-29T16:36:18Z</time>
      </trkpt>
      <trkpt lat="42.59809" lon="2.59442">
        <ele>641.15</ele>
        <time>2021-10-29T16:36:18Z</time>
      </trkpt>
      <trkpt lat="42.59811" lon="2.59426">
        <ele>641.46</ele>
        <time>2021-10-29T16:36:18Z</time>
      </trkpt>
      <trkpt lat="42.59812" lon="2.59412">
        <ele>642.28</ele>
        <time>2021-10-29T16:36:18Z</time>
      </trkpt>
      <trkpt lat="42.59818" lon="2.59392">
        <ele>644.16</ele>
        <time>2021-10-29T16:36:18Z</time>
      </trkpt>
      <trkpt lat="42.59829" lon="2.59387">
        <ele>642.59</ele>
        <time>2021-10-29T16:36:18Z</time>
      </trkpt>
      <trkpt lat="42.59838" lon="2.5938">
        <ele>641.95</ele>
        <time>2021-10-29T16:36:18Z</time>
      </trkpt>
      <trkpt lat="42.59852" lon="2.59376">
        <ele>639.81</ele>
        <time>2021-10-29T16:36:18Z</time>
      </trkpt>
      <trkpt lat="42.59865" lon="2.59368">
        <ele>638.86</ele>
        <time>2021-10-29T16:36:18Z</time>
      </trkpt>
      <trkpt lat="42.59877" lon="2.59357">
        <ele>639.01</ele>
        <time>2021-10-29T16:36:18Z</time>
      </trkpt>
      <trkpt lat="42.59886" lon="2.59348">
        <ele>638.9</ele>
        <time>2021-10-29T16:36:18Z</time>
      </trkpt>
      <trkpt lat="42.59901" lon="2.59331">
        <ele>637.11</ele>
        <time>2021-10-29T16:36:18Z</time>
      </trkpt>
      <trkpt lat="42.59911" lon="2.5932">
        <ele>635.68</ele>
        <time>2021-10-29T16:36:18Z</time>
      </trkpt>
      <trkpt lat="42.59923" lon="2.59306">
        <ele>634</ele>
        <time>2021-10-29T16:36:18Z</time>
      </trkpt>
      <trkpt lat="42.59928" lon="2.59296">
        <ele>633.78</ele>
        <time>2021-10-29T16:36:18Z</time>
      </trkpt>
      <trkpt lat="42.59929" lon="2.59291">
        <ele>634.1</ele>
        <time>2021-10-29T16:36:18Z</time>
      </trkpt>
      <trkpt lat="42.59927" lon="2.59278">
        <ele>636.25</ele>
        <time>2021-10-29T16:36:18Z</time>
      </trkpt>
      <trkpt lat="42.59926" lon="2.59265">
        <ele>637.58</ele>
        <time>2021-10-29T16:36:18Z</time>
      </trkpt>
      <trkpt lat="42.59931" lon="2.59245">
        <ele>637.75</ele>
        <time>2021-10-29T16:36:18Z</time>
      </trkpt>
      <trkpt lat="42.59933" lon="2.5923">
        <ele>638.4</ele>
        <time>2021-10-29T16:36:18Z</time>
      </trkpt>
      <trkpt lat="42.59934" lon="2.59215">
        <ele>639.35</ele>
        <time>2021-10-29T16:36:18Z</time>
      </trkpt>
      <trkpt lat="42.59939" lon="2.59205">
        <ele>638.84</ele>
        <time>2021-10-29T16:36:18Z</time>
      </trkpt>
      <trkpt lat="42.59945" lon="2.59193">
        <ele>638.3</ele>
        <time>2021-10-29T16:36:18Z</time>
      </trkpt>
      <trkpt lat="42.59955" lon="2.59186">
        <ele>637.22</ele>
        <time>2021-10-29T16:36:18Z</time>
      </trkpt>
      <trkpt lat="42.59966" lon="2.59182">
        <ele>636.35</ele>
        <time>2021-10-29T16:36:18Z</time>
      </trkpt>
      <trkpt lat="42.59976" lon="2.5917">
        <ele>636.8</ele>
        <time>2021-10-29T16:36:18Z</time>
      </trkpt>
      <trkpt lat="42.59974" lon="2.59156">
        <ele>638.81</ele>
        <time>2021-10-29T16:36:18Z</time>
      </trkpt>
      <trkpt lat="42.59968" lon="2.59142">
        <ele>640.92</ele>
        <time>2021-10-29T16:36:18Z</time>
      </trkpt>
      <trkpt lat="42.59966" lon="2.59126">
        <ele>643.34</ele>
        <time>2021-10-29T16:36:18Z</time>
      </trkpt>
      <trkpt lat="42.59974" lon="2.59119">
        <ele>644.36</ele>
        <time>2021-10-29T16:36:18Z</time>
      </trkpt>
      <trkpt lat="42.59981" lon="2.59126">
        <ele>643.09</ele>
        <time>2021-10-29T16:36:18Z</time>
      </trkpt>
      <trkpt lat="42.59993" lon="2.59135">
        <ele>641.07</ele>
        <time>2021-10-29T16:36:18Z</time>
      </trkpt>
      <trkpt lat="42.60002" lon="2.5914">
        <ele>639.68</ele>
        <time>2021-10-29T16:36:18Z</time>
      </trkpt>
      <trkpt lat="42.60011" lon="2.59145">
        <ele>638.32</ele>
        <time>2021-10-29T16:36:18Z</time>
      </trkpt>
      <trkpt lat="42.60019" lon="2.59155">
        <ele>636.29</ele>
        <time>2021-10-29T16:36:18Z</time>
      </trkpt>
      <trkpt lat="42.60033" lon="2.59172">
        <ele>635.48</ele>
        <time>2021-10-29T16:36:18Z</time>
      </trkpt>
      <trkpt lat="42.60051" lon="2.59204">
        <ele>631.05</ele>
        <time>2021-10-29T16:36:18Z</time>
      </trkpt>
      <trkpt lat="42.60077" lon="2.59215">
        <ele>631.92</ele>
        <time>2021-10-29T16:36:18Z</time>
      </trkpt>
      <trkpt lat="42.60084" lon="2.59226">
        <ele>629.71</ele>
        <time>2021-10-29T16:36:18Z</time>
      </trkpt>
      <trkpt lat="42.60093" lon="2.59239">
        <ele>628.13</ele>
        <time>2021-10-29T16:36:18Z</time>
      </trkpt>
      <trkpt lat="42.60106" lon="2.5925">
        <ele>628.66</ele>
        <time>2021-10-29T16:36:18Z</time>
      </trkpt>
      <trkpt lat="42.60112" lon="2.5927">
        <ele>624.65</ele>
        <time>2021-10-29T16:36:18Z</time>
      </trkpt>
      <trkpt lat="42.60121" lon="2.59285">
        <ele>623.23</ele>
        <time>2021-10-29T16:36:18Z</time>
      </trkpt>
      <trkpt lat="42.60133" lon="2.59294">
        <ele>624.47</ele>
        <time>2021-10-29T16:36:18Z</time>
      </trkpt>
      <trkpt lat="42.6014" lon="2.59311">
        <ele>622.27</ele>
        <time>2021-10-29T16:36:18Z</time>
      </trkpt>
      <trkpt lat="42.60147" lon="2.59322">
        <ele>621.62</ele>
        <time>2021-10-29T16:36:18Z</time>
      </trkpt>
      <trkpt lat="42.6016" lon="2.59339">
        <ele>620.87</ele>
        <time>2021-10-29T16:36:18Z</time>
      </trkpt>
      <trkpt lat="42.60166" lon="2.59351">
        <ele>619.38</ele>
        <time>2021-10-29T16:36:18Z</time>
      </trkpt>
      <trkpt lat="42.60175" lon="2.5936">
        <ele>619.43</ele>
        <time>2021-10-29T16:36:18Z</time>
      </trkpt>
      <trkpt lat="42.60182" lon="2.59369">
        <ele>619.07</ele>
        <time>2021-10-29T16:36:18Z</time>
      </trkpt>
      <trkpt lat="42.6019" lon="2.59382">
        <ele>618.11</ele>
        <time>2021-10-29T16:36:18Z</time>
      </trkpt>
      <trkpt lat="42.60189" lon="2.59396">
        <ele>614.93</ele>
        <time>2021-10-29T16:36:18Z</time>
      </trkpt>
      <trkpt lat="42.60189" lon="2.59412">
        <ele>611.55</ele>
        <time>2021-10-29T16:36:18Z</time>
      </trkpt>
      <trkpt lat="42.60188" lon="2.59425">
        <ele>609.49</ele>
        <time>2021-10-29T16:36:18Z</time>
      </trkpt>
      <trkpt lat="42.6019" lon="2.59441">
        <ele>607.93</ele>
        <time>2021-10-29T16:36:18Z</time>
      </trkpt>
      <trkpt lat="42.60192" lon="2.59453">
        <ele>606.82</ele>
        <time>2021-10-29T16:36:18Z</time>
      </trkpt>
      <trkpt lat="42.60191" lon="2.59467">
        <ele>604.87</ele>
        <time>2021-10-29T16:36:18Z</time>
      </trkpt>
      <trkpt lat="42.60185" lon="2.59483">
        <ele>601.89</ele>
        <time>2021-10-29T16:36:18Z</time>
      </trkpt>
      <trkpt lat="42.60186" lon="2.59497">
        <ele>598.94</ele>
        <time>2021-10-29T16:36:18Z</time>
      </trkpt>
      <trkpt lat="42.60178" lon="2.59503">
        <ele>596.34</ele>
        <time>2021-10-29T16:36:18Z</time>
      </trkpt>
      <trkpt lat="42.60165" lon="2.59507">
        <ele>593.43</ele>
        <time>2021-10-29T16:36:18Z</time>
      </trkpt>
      <trkpt lat="42.60158" lon="2.59511">
        <ele>591.46</ele>
        <time>2021-10-29T16:36:18Z</time>
      </trkpt>
      <trkpt lat="42.60158" lon="2.59528">
        <ele>587.74</ele>
        <time>2021-10-29T16:36:18Z</time>
      </trkpt>
      <trkpt lat="42.60163" lon="2.59533">
        <ele>587.39</ele>
        <time>2021-10-29T16:36:18Z</time>
      </trkpt>
      <trkpt lat="42.60166" lon="2.59533">
        <ele>587.84</ele>
        <time>2021-10-29T16:36:18Z</time>
      </trkpt>
      <trkpt lat="42.60173" lon="2.59542">
        <ele>586.89</ele>
        <time>2021-10-29T16:36:18Z</time>
      </trkpt>
      <trkpt lat="42.60174" lon="2.5956">
        <ele>582.19</ele>
        <time>2021-10-29T16:36:18Z</time>
      </trkpt>
      <trkpt lat="42.60172" lon="2.59573">
        <ele>577.64</ele>
        <time>2021-10-29T16:36:18Z</time>
      </trkpt>
      <trkpt lat="42.60169" lon="2.59585">
        <ele>573.23</ele>
        <time>2021-10-29T16:36:18Z</time>
      </trkpt>
      <trkpt lat="42.60175" lon="2.59595">
        <ele>570.92</ele>
        <time>2021-10-29T16:36:18Z</time>
      </trkpt>
      <trkpt lat="42.60189" lon="2.59593">
        <ele>573.86</ele>
        <time>2021-10-29T16:36:18Z</time>
      </trkpt>
      <trkpt lat="42.60199" lon="2.59591">
        <ele>576.12</ele>
        <time>2021-10-29T16:36:18Z</time>
      </trkpt>
      <trkpt lat="42.60216" lon="2.59591">
        <ele>578.87</ele>
        <time>2021-10-29T16:36:18Z</time>
      </trkpt>
      <trkpt lat="42.60231" lon="2.59586">
        <ele>582.21</ele>
        <time>2021-10-29T16:36:18Z</time>
      </trkpt>
      <trkpt lat="42.60243" lon="2.59592">
        <ele>581.41</ele>
        <time>2021-10-29T16:36:18Z</time>
      </trkpt>
      <trkpt lat="42.60253" lon="2.59601">
        <ele>579.66</ele>
        <time>2021-10-29T16:36:18Z</time>
      </trkpt>
      <trkpt lat="42.60259" lon="2.59613">
        <ele>576.8</ele>
        <time>2021-10-29T16:36:18Z</time>
      </trkpt>
      <trkpt lat="42.60267" lon="2.5962">
        <ele>575.63</ele>
        <time>2021-10-29T16:36:18Z</time>
      </trkpt>
      <trkpt lat="42.60267" lon="2.5962">
        <ele>575.63</ele>
        <time>2021-10-29T16:36:18Z</time>
      </trkpt>
      <trkpt lat="42.60265" lon="2.59634">
        <ele>571.36</ele>
        <time>2021-10-29T16:36:18Z</time>
      </trkpt>
      <trkpt lat="42.6027" lon="2.59646">
        <ele>568.52</ele>
        <time>2021-10-29T16:36:18Z</time>
      </trkpt>
      <trkpt lat="42.60276" lon="2.59665">
        <ele>563.99</ele>
        <time>2021-10-29T16:36:18Z</time>
      </trkpt>
      <trkpt lat="42.60281" lon="2.5968">
        <ele>560.62</ele>
        <time>2021-10-29T16:36:18Z</time>
      </trkpt>
      <trkpt lat="42.60292" lon="2.59695">
        <ele>558.09</ele>
        <time>2021-10-29T16:36:18Z</time>
      </trkpt>
      <trkpt lat="42.60305" lon="2.597">
        <ele>557.49</ele>
        <time>2021-10-29T16:36:18Z</time>
      </trkpt>
      <trkpt lat="42.6032" lon="2.59695">
        <ele>560.27</ele>
        <time>2021-10-29T16:36:18Z</time>
      </trkpt>
      <trkpt lat="42.60327" lon="2.59699">
        <ele>559.59</ele>
        <time>2021-10-29T16:36:18Z</time>
      </trkpt>
      <trkpt lat="42.60327" lon="2.59712">
        <ele>555.62</ele>
        <time>2021-10-29T16:36:18Z</time>
      </trkpt>
      <trkpt lat="42.60331" lon="2.59732">
        <ele>549.95</ele>
        <time>2021-10-29T16:36:18Z</time>
      </trkpt>
      <trkpt lat="42.60333" lon="2.59746">
        <ele>545.97</ele>
        <time>2021-10-29T16:36:18Z</time>
      </trkpt>
      <trkpt lat="42.60337" lon="2.59757">
        <ele>543.19</ele>
        <time>2021-10-29T16:36:18Z</time>
      </trkpt>
      <trkpt lat="42.60343" lon="2.59765">
        <ele>541.61</ele>
        <time>2021-10-29T16:36:18Z</time>
      </trkpt>
      <trkpt lat="42.60351" lon="2.59764">
        <ele>543</ele>
        <time>2021-10-29T16:36:18Z</time>
      </trkpt>
      <trkpt lat="42.60359" lon="2.59756">
        <ele>546.33</ele>
        <time>2021-10-29T16:36:18Z</time>
      </trkpt>
      <trkpt lat="42.60369" lon="2.59764">
        <ele>544.95</ele>
        <time>2021-10-29T16:36:18Z</time>
      </trkpt>
      <trkpt lat="42.60366" lon="2.59785">
        <ele>538.94</ele>
        <time>2021-10-29T16:36:18Z</time>
      </trkpt>
      <trkpt lat="42.60359" lon="2.59796">
        <ele>535.19</ele>
        <time>2021-10-29T16:36:18Z</time>
      </trkpt>
      <trkpt lat="42.60354" lon="2.59809">
        <ele>530.64</ele>
        <time>2021-10-29T16:36:18Z</time>
      </trkpt>
      <trkpt lat="42.6036" lon="2.59799">
        <ele>534.53</ele>
        <time>2021-10-29T16:36:18Z</time>
      </trkpt>
      <trkpt lat="42.60373" lon="2.59782">
        <ele>540.31</ele>
        <time>2021-10-29T16:36:18Z</time>
      </trkpt>
      <trkpt lat="42.60378" lon="2.59787">
        <ele>539.34</ele>
        <time>2021-10-29T16:36:18Z</time>
      </trkpt>
      <trkpt lat="42.60382" lon="2.59799">
        <ele>536.39</ele>
        <time>2021-10-29T16:36:18Z</time>
      </trkpt>
      <trkpt lat="42.60386" lon="2.59811">
        <ele>533.46</ele>
        <time>2021-10-29T16:36:18Z</time>
      </trkpt>
      <trkpt lat="42.60393" lon="2.59821">
        <ele>531.35</ele>
        <time>2021-10-29T16:36:18Z</time>
      </trkpt>
      <trkpt lat="42.60399" lon="2.5983">
        <ele>529.31</ele>
        <time>2021-10-29T16:36:18Z</time>
      </trkpt>
      <trkpt lat="42.60397" lon="2.59843">
        <ele>525.07</ele>
        <time>2021-10-29T16:36:18Z</time>
      </trkpt>
      <trkpt lat="42.60391" lon="2.59863">
        <ele>518.17</ele>
        <time>2021-10-29T16:36:18Z</time>
      </trkpt>
      <trkpt lat="42.60393" lon="2.59876">
        <ele>514.31</ele>
        <time>2021-10-29T16:36:18Z</time>
      </trkpt>
      <trkpt lat="42.60395" lon="2.59889">
        <ele>510.47</ele>
        <time>2021-10-29T16:36:18Z</time>
      </trkpt>
      <trkpt lat="42.60399" lon="2.59899">
        <ele>507.86</ele>
        <time>2021-10-29T16:36:18Z</time>
      </trkpt>
      <trkpt lat="42.60401" lon="2.5991">
        <ele>504.69</ele>
        <time>2021-10-29T16:36:18Z</time>
      </trkpt>
      <trkpt lat="42.60399" lon="2.59922">
        <ele>500.61</ele>
        <time>2021-10-29T16:36:18Z</time>
      </trkpt>
      <trkpt lat="42.60407" lon="2.59931">
        <ele>499.18</ele>
        <time>2021-10-29T16:36:18Z</time>
      </trkpt>
      <trkpt lat="42.60416" lon="2.59928">
        <ele>501.65</ele>
        <time>2021-10-29T16:36:18Z</time>
      </trkpt>
      <trkpt lat="42.60425" lon="2.59937">
        <ele>500.66</ele>
        <time>2021-10-29T16:36:18Z</time>
      </trkpt>
      <trkpt lat="42.60429" lon="2.59954">
        <ele>496.69</ele>
        <time>2021-10-29T16:36:18Z</time>
      </trkpt>
      <trkpt lat="42.60433" lon="2.59966">
        <ele>493.68</ele>
        <time>2021-10-29T16:36:18Z</time>
      </trkpt>
      <trkpt lat="42.60441" lon="2.59964">
        <ele>494.84</ele>
        <time>2021-10-29T16:36:18Z</time>
      </trkpt>
      <trkpt lat="42.60453" lon="2.5996">
        <ele>496.86</ele>
        <time>2021-10-29T16:36:18Z</time>
      </trkpt>
      <trkpt lat="42.60466" lon="2.5996">
        <ele>497.83</ele>
        <time>2021-10-29T16:36:18Z</time>
      </trkpt>
      <trkpt lat="42.60472" lon="2.59973">
        <ele>494.48</ele>
        <time>2021-10-29T16:36:18Z</time>
      </trkpt>
      <trkpt lat="42.60478" lon="2.59987">
        <ele>490.84</ele>
        <time>2021-10-29T16:36:18Z</time>
      </trkpt>
      <trkpt lat="42.60477" lon="2.60002">
        <ele>486.4</ele>
        <time>2021-10-29T16:36:18Z</time>
      </trkpt>
      <trkpt lat="42.60478" lon="2.60013">
        <ele>483.26</ele>
        <time>2021-10-29T16:36:18Z</time>
      </trkpt>
      <trkpt lat="42.60479" lon="2.60025">
        <ele>479.84</ele>
        <time>2021-10-29T16:36:18Z</time>
      </trkpt>
      <trkpt lat="42.60498" lon="2.60046">
        <ele>475.11</ele>
        <time>2021-10-29T16:36:18Z</time>
      </trkpt>
      <trkpt lat="42.60509" lon="2.60053">
        <ele>474.41</ele>
        <time>2021-10-29T16:36:18Z</time>
      </trkpt>
      <trkpt lat="42.60519" lon="2.60063">
        <ele>472.64</ele>
        <time>2021-10-29T16:36:18Z</time>
      </trkpt>
      <trkpt lat="42.6053" lon="2.6008">
        <ele>468.76</ele>
        <time>2021-10-29T16:36:18Z</time>
      </trkpt>
      <trkpt lat="42.60539" lon="2.60095">
        <ele>465.13</ele>
        <time>2021-10-29T16:36:18Z</time>
      </trkpt>
      <trkpt lat="42.60552" lon="2.60124">
        <ele>457.16</ele>
        <time>2021-10-29T16:36:18Z</time>
      </trkpt>
      <trkpt lat="42.60561" lon="2.60135">
        <ele>454.59</ele>
        <time>2021-10-29T16:36:18Z</time>
      </trkpt>
      <trkpt lat="42.60569" lon="2.60151">
        <ele>450.11</ele>
        <time>2021-10-29T16:36:18Z</time>
      </trkpt>
      <trkpt lat="42.60565" lon="2.60166">
        <ele>445.08</ele>
        <time>2021-10-29T16:36:18Z</time>
      </trkpt>
      <trkpt lat="42.60567" lon="2.6018">
        <ele>441.08</ele>
        <time>2021-10-29T16:36:18Z</time>
      </trkpt>
      <trkpt lat="42.60567" lon="2.60196">
        <ele>436.42</ele>
        <time>2021-10-29T16:36:18Z</time>
      </trkpt>
      <trkpt lat="42.60569" lon="2.60219">
        <ele>429.7</ele>
        <time>2021-10-29T16:36:18Z</time>
      </trkpt>
      <trkpt lat="42.60573" lon="2.60231">
        <ele>426.15</ele>
        <time>2021-10-29T16:36:18Z</time>
      </trkpt>
      <trkpt lat="42.60584" lon="2.60248">
        <ele>421.26</ele>
        <time>2021-10-29T16:36:18Z</time>
      </trkpt>
      <trkpt lat="42.60593" lon="2.60259">
        <ele>418.33</ele>
        <time>2021-10-29T16:36:18Z</time>
      </trkpt>
      <trkpt lat="42.60601" lon="2.60277">
        <ele>413.72</ele>
        <time>2021-10-29T16:36:18Z</time>
      </trkpt>
      <trkpt lat="42.60606" lon="2.60294">
        <ele>409.5</ele>
        <time>2021-10-29T16:36:18Z</time>
      </trkpt>
      <trkpt lat="42.60609" lon="2.60305">
        <ele>406.81</ele>
        <time>2021-10-29T16:36:18Z</time>
      </trkpt>
      <trkpt lat="42.60612" lon="2.60317">
        <ele>403.59</ele>
        <time>2021-10-29T16:36:18Z</time>
      </trkpt>
      <trkpt lat="42.6062" lon="2.60326">
        <ele>401.32</ele>
        <time>2021-10-29T16:36:18Z</time>
      </trkpt>
      <trkpt lat="42.60628" lon="2.60331">
        <ele>400.19</ele>
        <time>2021-10-29T16:36:18Z</time>
      </trkpt>
      <trkpt lat="42.60637" lon="2.60325">
        <ele>402.02</ele>
        <time>2021-10-29T16:36:18Z</time>
      </trkpt>
      <trkpt lat="42.60645" lon="2.60332">
        <ele>399.66</ele>
        <time>2021-10-29T16:36:18Z</time>
      </trkpt>
      <trkpt lat="42.60652" lon="2.60344">
        <ele>396.01</ele>
        <time>2021-10-29T16:36:18Z</time>
      </trkpt>
      <trkpt lat="42.60651" lon="2.60356">
        <ele>392.78</ele>
        <time>2021-10-29T16:36:18Z</time>
      </trkpt>
      <trkpt lat="42.60641" lon="2.60369">
        <ele>389.68</ele>
        <time>2021-10-29T16:36:18Z</time>
      </trkpt>
      <trkpt lat="42.60636" lon="2.60376">
        <ele>387.97</ele>
        <time>2021-10-29T16:36:18Z</time>
      </trkpt>
      <trkpt lat="42.60656" lon="2.6038">
        <ele>385.98</ele>
        <time>2021-10-29T16:36:18Z</time>
      </trkpt>
      <trkpt lat="42.60665" lon="2.60396">
        <ele>381.25</ele>
        <time>2021-10-29T16:36:18Z</time>
      </trkpt>
      <trkpt lat="42.60674" lon="2.60406">
        <ele>378.31</ele>
        <time>2021-10-29T16:36:18Z</time>
      </trkpt>
      <trkpt lat="42.60683" lon="2.6041">
        <ele>377.04</ele>
        <time>2021-10-29T16:36:18Z</time>
      </trkpt>
      <trkpt lat="42.60695" lon="2.6041">
        <ele>376.78</ele>
        <time>2021-10-29T16:36:18Z</time>
      </trkpt>
      <trkpt lat="42.60716" lon="2.60408">
        <ele>375.57</ele>
        <time>2021-10-29T16:36:18Z</time>
      </trkpt>
      <trkpt lat="42.60714" lon="2.60422">
        <ele>372.45</ele>
        <time>2021-10-29T16:36:18Z</time>
      </trkpt>
      <trkpt lat="42.60708" lon="2.6043">
        <ele>371.18</ele>
        <time>2021-10-29T16:36:18Z</time>
      </trkpt>
      <trkpt lat="42.60707" lon="2.60457">
        <ele>365.4</ele>
        <time>2021-10-29T16:36:18Z</time>
      </trkpt>
      <trkpt lat="42.60714" lon="2.6047">
        <ele>362.45</ele>
        <time>2021-10-29T16:36:18Z</time>
      </trkpt>
      <trkpt lat="42.60722" lon="2.60486">
        <ele>359.13</ele>
        <time>2021-10-29T16:36:18Z</time>
      </trkpt>
      <trkpt lat="42.60722" lon="2.6051">
        <ele>355.04</ele>
        <time>2021-10-29T16:36:18Z</time>
      </trkpt>
      <trkpt lat="42.60728" lon="2.6053">
        <ele>352.83</ele>
        <time>2021-10-29T16:36:18Z</time>
      </trkpt>
      <trkpt lat="42.60729" lon="2.60543">
        <ele>351.64</ele>
        <time>2021-10-29T16:36:18Z</time>
      </trkpt>
      <trkpt lat="42.60742" lon="2.60555">
        <ele>349.85</ele>
        <time>2021-10-29T16:36:18Z</time>
      </trkpt>
      <trkpt lat="42.60754" lon="2.60561">
        <ele>348.56</ele>
        <time>2021-10-29T16:36:18Z</time>
      </trkpt>
      <trkpt lat="42.60763" lon="2.60545">
        <ele>349.79</ele>
        <time>2021-10-29T16:36:18Z</time>
      </trkpt>
      <trkpt lat="42.60775" lon="2.60533">
        <ele>350.21</ele>
        <time>2021-10-29T16:36:18Z</time>
      </trkpt>
      <trkpt lat="42.6079" lon="2.60534">
        <ele>346.89</ele>
        <time>2021-10-29T16:36:18Z</time>
      </trkpt>
      <trkpt lat="42.60799" lon="2.60544">
        <ele>343.85</ele>
        <time>2021-10-29T16:36:18Z</time>
      </trkpt>
      <trkpt lat="42.60806" lon="2.60562">
        <ele>340.4</ele>
        <time>2021-10-29T16:36:18Z</time>
      </trkpt>
      <trkpt lat="42.60809" lon="2.60576">
        <ele>338.25</ele>
        <time>2021-10-29T16:36:18Z</time>
      </trkpt>
      <trkpt lat="42.60813" lon="2.60586">
        <ele>336.35</ele>
        <time>2021-10-29T16:36:18Z</time>
      </trkpt>
      <trkpt lat="42.60821" lon="2.60569">
        <ele>336.53</ele>
        <time>2021-10-29T16:36:18Z</time>
      </trkpt>
      <trkpt lat="42.60824" lon="2.60556">
        <ele>337.28</ele>
        <time>2021-10-29T16:36:18Z</time>
      </trkpt>
      <trkpt lat="42.60836" lon="2.60553">
        <ele>335.08</ele>
        <time>2021-10-29T16:36:18Z</time>
      </trkpt>
      <trkpt lat="42.60833" lon="2.6057">
        <ele>333.95</ele>
        <time>2021-10-29T16:36:18Z</time>
      </trkpt>
      <trkpt lat="42.60833" lon="2.60584">
        <ele>332.54</ele>
        <time>2021-10-29T16:36:18Z</time>
      </trkpt>
      <trkpt lat="42.60834" lon="2.60598">
        <ele>331.18</ele>
        <time>2021-10-29T16:36:18Z</time>
      </trkpt>
      <trkpt lat="42.60837" lon="2.60613">
        <ele>329.46</ele>
        <time>2021-10-29T16:36:18Z</time>
      </trkpt>
      <trkpt lat="42.60838" lon="2.6063">
        <ele>327.98</ele>
        <time>2021-10-29T16:36:18Z</time>
      </trkpt>
      <trkpt lat="42.60837" lon="2.60646">
        <ele>326.87</ele>
        <time>2021-10-29T16:36:18Z</time>
      </trkpt>
      <trkpt lat="42.60831" lon="2.60658">
        <ele>326.83</ele>
        <time>2021-10-29T16:36:18Z</time>
      </trkpt>
      <trkpt lat="42.60819" lon="2.60664">
        <ele>328.02</ele>
        <time>2021-10-29T16:36:18Z</time>
      </trkpt>
      <trkpt lat="42.60808" lon="2.60666">
        <ele>329.32</ele>
        <time>2021-10-29T16:36:18Z</time>
      </trkpt>
      <trkpt lat="42.60797" lon="2.6067">
        <ele>330.59</ele>
        <time>2021-10-29T16:36:18Z</time>
      </trkpt>
      <trkpt lat="42.60783" lon="2.60678">
        <ele>332.22</ele>
        <time>2021-10-29T16:36:18Z</time>
      </trkpt>
    </trkseg>
  </trk>
</gpx>